| time (UTC) | temp C | wind direction | speed KPH | gust KPH | rain 1hr cm | rain 24hr cm | rain mn cm | humidity % | barometer mb |
| 20260506233505 | 14 | 178 | 11.3 | 24.1 | 0.00 | 0.00 | 0.00 | 88 | 1007.3 |
| 20260506233405 | 14 | 181 | 9.7 | 24.1 | 0.00 | 0.00 | 0.00 | 88 | 1007.3 |
| 20260506233306 | 14 | 181 | 9.7 | 24.1 | 0.00 | 0.00 | 0.00 | 88 | 1007.3 |
| 20260506233205 | 14 | 181 | 9.7 | 24.1 | 0.00 | 0.00 | 0.00 | 88 | 1007.4 |
| 20260506233119 | 13 | 163 | 8.0 | 24.1 | 0.00 | 0.00 | 0.00 | 88 | 1007.6 |
| 20260506233105 | 14 | 179 | 9.7 | 24.1 | 0.00 | 0.00 | 0.00 | 88 | 1007.4 |
| 20260506233006 | 14 | 178 | 9.7 | 24.1 | 0.00 | 0.00 | 0.00 | 88 | 1007.3 |
| 20260506232905 | 14 | 179 | 9.7 | 24.1 | 0.00 | 0.00 | 0.00 | 88 | 1007.3 |
| 20260506232805 | 14 | 178 | 9.7 | 24.1 | 0.00 | 0.00 | 0.00 | 88 | 1007.2 |
| 20260506232707 | 14 | 177 | 9.7 | 24.1 | 0.00 | 0.00 | 0.00 | 88 | 1007.3 |
| 20260506232005 | 14 | 176 | 9.7 | 22.5 | 0.00 | 0.00 | 0.00 | 88 | 1007.3 |
| 20260506231905 | 14 | 174 | 9.7 | 22.5 | 0.00 | 0.00 | 0.00 | 88 | 1007.2 |
| 20260506231806 | 14 | 174 | 11.3 | 22.5 | 0.00 | 0.00 | 0.00 | 88 | 1007.2 |
| 20260506231705 | 14 | 177 | 11.3 | 24.1 | 0.00 | 0.00 | 0.00 | 88 | 1007.2 |
| 20260506231607 | 13 | 166 | 8.0 | 24.1 | 0.00 | 0.00 | 0.00 | 88 | 1007.5 |
| 20260506231605 | 14 | 177 | 11.3 | 25.7 | 0.00 | 0.00 | 0.00 | 88 | 1007.2 |
| 20260506231506 | 14 | 178 | 11.3 | 25.7 | 0.00 | 0.00 | 0.00 | 88 | 1007.2 |
| 20260506231405 | 14 | 177 | 11.3 | 25.7 | 0.00 | 0.00 | 0.00 | 88 | 1007.3 |
| 20260506231305 | 14 | 177 | 11.3 | 25.7 | 0.00 | 0.00 | 0.00 | 88 | 1007.2 |
| 20260506231205 | 14 | 176 | 11.3 | 25.7 | 0.00 | 0.00 | 0.00 | 88 | 1007.3 |
| 20260506231105 | 14 | 177 | 9.7 | 25.7 | 0.00 | 0.00 | 0.00 | 88 | 1007.3 |
| 20260506231006 | 14 | 177 | 11.3 | 25.7 | 0.00 | 0.00 | 0.00 | 88 | 1007.3 |
| 20260506230905 | 14 | 178 | 11.3 | 25.7 | 0.00 | 0.00 | 0.00 | 88 | 1007.3 |
| 20260506230805 | 14 | 179 | 9.7 | 25.7 | 0.00 | 0.00 | 0.00 | 88 | 1007.3 |
| 20260506230705 | 14 | 179 | 9.7 | 25.7 | 0.00 | 0.00 | 0.00 | 88 | 1007.3 |
| 20260506230605 | 14 | 177 | 9.7 | 22.5 | 0.00 | 0.00 | 0.00 | 88 | 1007.3 |
| 20260506230505 | 14 | 176 | 9.7 | 22.5 | 0.00 | 0.00 | 0.00 | 88 | 1007.3 |
| 20260506230405 | 14 | 181 | 9.7 | 22.5 | 0.00 | 0.00 | 0.00 | 88 | 1007.4 |
| 20260506230305 | 14 | 182 | 9.7 | 22.5 | 0.00 | 0.00 | 0.00 | 88 | 1007.3 |
| 20260506230205 | 14 | 184 | 11.3 | 22.5 | 0.00 | 0.00 | 0.00 | 88 | 1007.3 |
| 20260506230118 | 13 | 162 | 11.3 | 22.5 | 0.00 | 0.00 | 0.00 | 88 | 1007.6 |
| 20260506230105 | 14 | 185 | 11.3 | 22.5 | 0.00 | 0.00 | 0.00 | 88 | 1007.3 |
| 20260506230006 | 14 | 185 | 11.3 | 22.5 | 0.00 | 0.00 | 0.00 | 88 | 1007.3 |
| 20260506224605 | 13 | 195 | 11.3 | 25.7 | 0.00 | 0.00 | 0.00 | 88 | 1007.5 |
| 20260506223117 | 13 | 152 | 8.0 | 22.5 | 0.00 | 0.00 | 0.00 | 88 | 1007.3 |
| 20260506223105 | 14 | 191 | 9.7 | 25.7 | 0.00 | 0.00 | 0.00 | 88 | 1007.1 |
| 20260506223005 | 14 | 189 | 11.3 | 25.7 | 0.00 | 0.00 | 0.00 | 88 | 1007.2 |
| 20260506222904 | 14 | 188 | 11.3 | 25.7 | 0.00 | 0.00 | 0.00 | 88 | 1007.1 |
| 20260506222805 | 14 | 190 | 11.3 | 25.7 | 0.00 | 0.00 | 0.00 | 88 | 1007.2 |
| 20260506222705 | 14 | 190 | 12.9 | 25.7 | 0.00 | 0.00 | 0.00 | 88 | 1007.1 |
| 20260506222005 | 14 | 194 | 12.9 | 25.7 | 0.00 | 0.00 | 0.00 | 88 | 1007.1 |
| 20260506221905 | 14 | 196 | 11.3 | 25.7 | 0.00 | 0.00 | 0.00 | 88 | 1007.0 |
| 20260506221805 | 14 | 197 | 11.3 | 25.7 | 0.00 | 0.00 | 0.00 | 87 | 1007.1 |
| 20260506221705 | 14 | 199 | 11.3 | 25.7 | 0.00 | 0.00 | 0.00 | 87 | 1007.1 |
| 20260506221605 | 14 | 200 | 11.3 | 25.7 | 0.00 | 0.00 | 0.00 | 88 | 1007.1 |
| 20260506221603 | 13 | 184 | 8.0 | 25.7 | 0.00 | 0.00 | 0.00 | 88 | 1007.2 |
| 20260506221506 | 14 | 201 | 11.3 | 25.7 | 0.00 | 0.00 | 0.00 | 88 | 1007.0 |
| 20260506221405 | 14 | 202 | 11.3 | 25.7 | 0.00 | 0.00 | 0.00 | 87 | 1007.0 |
| 20260506221305 | 14 | 200 | 11.3 | 30.6 | 0.00 | 0.00 | 0.00 | 87 | 1007.0 |
| 20260506221205 | 14 | 202 | 11.3 | 30.6 | 0.00 | 0.00 | 0.00 | 87 | 1007.1 |
| 20260506221105 | 14 | 204 | 11.3 | 30.6 | 0.00 | 0.00 | 0.00 | 87 | 1007.1 |
| 20260506221005 | 14 | 206 | 11.3 | 30.6 | 0.00 | 0.00 | 0.00 | 88 | 1007.0 |
| 20260506220906 | 14 | 207 | 9.7 | 30.6 | 0.00 | 0.00 | 0.00 | 88 | 1007.1 |
| 20260506220805 | 14 | 207 | 9.7 | 30.6 | 0.00 | 0.00 | 0.00 | 87 | 1007.0 |
| 20260506220705 | 14 | 204 | 9.7 | 30.6 | 0.00 | 0.00 | 0.00 | 87 | 1007.1 |
| 20260506220605 | 14 | 202 | 9.7 | 30.6 | 0.00 | 0.00 | 0.00 | 87 | 1007.1 |
| 20260506220505 | 14 | 200 | 11.3 | 30.6 | 0.00 | 0.00 | 0.00 | 87 | 1007.0 |
| 20260506220405 | 14 | 198 | 9.7 | 32.2 | 0.00 | 0.00 | 0.00 | 87 | 1007.0 |
| 20260506220305 | 14 | 200 | 11.3 | 32.2 | 0.00 | 0.00 | 0.00 | 87 | 1007.0 |
| 20260506220205 | 14 | 199 | 11.3 | 32.2 | 0.00 | 0.00 | 0.00 | 87 | 1006.9 |
| 20260506220117 | 14 | 216 | 9.7 | 32.2 | 0.00 | 0.00 | 0.00 | 87 | 1007.1 |
| 20260506220105 | 14 | 198 | 11.3 | 32.2 | 0.00 | 0.00 | 0.00 | 87 | 1006.9 |
| 20260506220005 | 14 | 196 | 12.9 | 32.2 | 0.00 | 0.00 | 0.00 | 87 | 1006.9 |
| 20260506215905 | 14 | 196 | 12.9 | 32.2 | 0.00 | 0.00 | 0.00 | 87 | 1006.9 |
| 20260506215805 | 14 | 197 | 14.5 | 32.2 | 0.00 | 0.00 | 0.00 | 87 | 1006.9 |
| 20260506215705 | 14 | 196 | 14.5 | 32.2 | 0.00 | 0.00 | 0.00 | 87 | 1006.9 |
| 20260506215605 | 14 | 197 | 14.5 | 32.2 | 0.00 | 0.00 | 0.00 | 87 | 1006.8 |
| 20260506215505 | 14 | 198 | 14.5 | 32.2 | 0.00 | 0.00 | 0.00 | 87 | 1006.9 |
| 20260506215405 | 14 | 199 | 14.5 | 32.2 | 0.00 | 0.00 | 0.00 | 87 | 1006.8 |
| 20260506215306 | 14 | 197 | 14.5 | 32.2 | 0.00 | 0.00 | 0.00 | 87 | 1006.7 |
| 20260506215205 | 14 | 199 | 14.5 | 32.2 | 0.00 | 0.00 | 0.00 | 87 | 1006.8 |
| 20260506215105 | 14 | 199 | 14.5 | 32.2 | 0.00 | 0.00 | 0.00 | 87 | 1006.7 |
| 20260506215006 | 14 | 200 | 14.5 | 32.2 | 0.00 | 0.00 | 0.00 | 88 | 1006.7 |
| 20260506214905 | 15 | 200 | 12.9 | 32.2 | 0.00 | 0.00 | 0.00 | 88 | 1006.7 |
| 20260506214806 | 15 | 201 | 12.9 | 33.8 | 0.00 | 0.00 | 0.00 | 88 | 1006.5 |
| 20260506214705 | 15 | 204 | 11.3 | 33.8 | 0.00 | 0.00 | 0.00 | 88 | 1006.7 |
| 20260506214605 | 15 | 204 | 11.3 | 33.8 | 0.00 | 0.00 | 0.00 | 88 | 1006.8 |
| 20260506214505 | 15 | 203 | 11.3 | 33.8 | 0.00 | 0.00 | 0.00 | 88 | 1006.8 |
| 20260506214405 | 15 | 203 | 11.3 | 33.8 | 0.00 | 0.00 | 0.00 | 88 | 1006.8 |
| 20260506214305 | 15 | 202 | 11.3 | 33.8 | 0.00 | 0.00 | 0.00 | 88 | 1006.8 |
| 20260506214205 | 15 | 201 | 11.3 | 33.8 | 0.00 | 0.00 | 0.00 | 88 | 1006.6 |
| 20260506214105 | 15 | 201 | 11.3 | 40.2 | 0.00 | 0.00 | 0.00 | 88 | 1006.8 |
| 20260506214005 | 15 | 200 | 11.3 | 40.2 | 0.00 | 0.00 | 0.00 | 88 | 1006.8 |
| 20260506213905 | 15 | 198 | 11.3 | 40.2 | 0.00 | 0.00 | 0.00 | 88 | 1006.8 |
| 20260506213805 | 15 | 195 | 11.3 | 40.2 | 0.00 | 0.00 | 0.00 | 88 | 1006.7 |
| 20260506213706 | 15 | 194 | 11.3 | 40.2 | 0.00 | 0.00 | 0.00 | 88 | 1006.7 |
| 20260506213605 | 15 | 193 | 11.3 | 40.2 | 0.00 | 0.00 | 0.00 | 88 | 1006.7 |
| 20260506213505 | 15 | 195 | 11.3 | 40.2 | 0.00 | 0.00 | 0.00 | 88 | 1006.7 |
| 20260506213405 | 15 | 193 | 11.3 | 40.2 | 0.00 | 0.00 | 0.00 | 88 | 1006.7 |
| 20260506213305 | 15 | 193 | 11.3 | 40.2 | 0.00 | 0.00 | 0.00 | 88 | 1006.7 |
| 20260506213205 | 15 | 194 | 11.3 | 40.2 | 0.00 | 0.00 | 0.00 | 88 | 1006.6 |
| 20260506213116 | -17 | 181 | 14.5 | 38.6 | 0.00 | 0.00 | 0.00 | 1006.8 | |
| 20260506213106 | 15 | 192 | 9.7 | 33.8 | 0.00 | 0.00 | 0.00 | 88 | 1006.8 |
| 20260506213005 | 15 | 193 | 9.7 | 25.7 | 0.00 | 0.00 | 0.00 | 88 | 1006.7 |
| 20260506212905 | 15 | 194 | 9.7 | 25.7 | 0.00 | 0.00 | 0.00 | 88 | 1006.8 |
| 20260506212805 | 15 | 195 | 9.7 | 25.7 | 0.00 | 0.00 | 0.00 | 88 | 1006.8 |
| 20260506212705 | 15 | 195 | 11.3 | 30.6 | 0.00 | 0.00 | 0.00 | 88 | 1006.7 |
| 20260506212605 | 15 | 195 | 11.3 | 30.6 | 0.00 | 0.00 | 0.00 | 88 | 1006.7 |
| 20260506212005 | 14 | 195 | 11.3 | 30.6 | 0.00 | 0.00 | 0.00 | 87 | 1006.7 |
| 20260506211905 | 14 | 195 | 11.3 | 30.6 | 0.00 | 0.00 | 0.00 | 87 | 1006.6 |
| 20260506211805 | 14 | 197 | 11.3 | 30.6 | 0.00 | 0.00 | 0.00 | 87 | 1006.7 |
| 20260506211705 | 14 | 197 | 9.7 | 29.0 | 0.00 | 0.00 | 0.00 | 87 | 1006.7 |
| 20260506211605 | 14 | 196 | 9.7 | 25.7 | 0.00 | 0.00 | 0.00 | 87 | 1006.7 |
| 20260506211506 | -17 | 208 | 9.7 | 25.7 | 0.00 | 0.00 | 0.00 | 1006.9 | |
| 20260506211405 | 14 | 195 | 9.7 | 25.7 | 0.00 | 0.00 | 0.00 | 87 | 1006.7 |
| 20260506211305 | 14 | 196 | 8.0 | 25.7 | 0.00 | 0.00 | 0.00 | 87 | 1006.7 |
| 20260506211205 | 14 | 194 | 8.0 | 25.7 | 0.00 | 0.00 | 0.00 | 87 | 1006.8 |
| 20260506211104 | 14 | 193 | 8.0 | 17.7 | 0.00 | 0.00 | 0.00 | 87 | 1006.6 |
| 20260506211005 | 14 | 189 | 8.0 | 19.3 | 0.00 | 0.00 | 0.00 | 87 | 1006.7 |
| 20260506210905 | 14 | 187 | 9.7 | 19.3 | 0.00 | 0.00 | 0.00 | 87 | 1006.8 |
| 20260506210805 | 14 | 188 | 9.7 | 20.9 | 0.00 | 0.00 | 0.00 | 87 | 1006.6 |
| 20260506210705 | 14 | 189 | 9.7 | 20.9 | 0.00 | 0.00 | 0.00 | 87 | 1006.6 |
| 20260506210605 | 14 | 188 | 9.7 | 24.1 | 0.00 | 0.00 | 0.00 | 86 | 1006.6 |
| 20260506210505 | 14 | 186 | 8.0 | 24.1 | 0.00 | 0.00 | 0.00 | 86 | 1006.6 |
| 20260506210405 | 14 | 188 | 8.0 | 24.1 | 0.00 | 0.00 | 0.00 | 86 | 1006.7 |
| 20260506210305 | 14 | 189 | 8.0 | 24.1 | 0.00 | 0.00 | 0.00 | 86 | 1006.7 |
| 20260506210206 | 14 | 190 | 8.0 | 24.1 | 0.00 | 0.00 | 0.00 | 86 | 1006.8 |
| 20260506210121 | 14 | 167 | 6.4 | 24.1 | 0.00 | 0.00 | 0.00 | 86 | 1007.0 |
| 20260506210105 | 14 | 192 | 8.0 | 24.1 | 0.00 | 0.00 | 0.00 | 86 | 1006.7 |
| 20260506210005 | 14 | 195 | 8.0 | 24.1 | 0.00 | 0.00 | 0.00 | 86 | 1006.8 |
| 20260506205906 | 14 | 198 | 8.0 | 24.1 | 0.00 | 0.00 | 0.00 | 86 | 1006.8 |
| 20260506205805 | 14 | 198 | 8.0 | 24.1 | 0.00 | 0.00 | 0.00 | 86 | 1006.8 |
| 20260506205705 | 14 | 195 | 8.0 | 24.1 | 0.00 | 0.00 | 0.00 | 86 | 1006.8 |
| 20260506205605 | 14 | 198 | 8.0 | 24.1 | 0.00 | 0.00 | 0.00 | 86 | 1006.9 |
| 20260506205505 | 14 | 200 | 9.7 | 24.1 | 0.00 | 0.00 | 0.00 | 86 | 1006.9 |
| 20260506205405 | 14 | 199 | 9.7 | 27.4 | 0.00 | 0.00 | 0.00 | 86 | 1006.9 |
| 20260506205306 | 14 | 198 | 11.3 | 27.4 | 0.00 | 0.00 | 0.00 | 86 | 1006.9 |
| 20260506205205 | 14 | 199 | 11.3 | 27.4 | 0.00 | 0.00 | 0.00 | 86 | 1006.9 |
| 20260506205105 | 14 | 200 | 11.3 | 27.4 | 0.00 | 0.00 | 0.00 | 86 | 1006.9 |
| 20260506205005 | 14 | 201 | 11.3 | 33.8 | 0.00 | 0.00 | 0.00 | 85 | 1007.0 |
| 20260506204905 | 14 | 202 | 11.3 | 33.8 | 0.00 | 0.00 | 0.00 | 85 | 1007.0 |
| 20260506204805 | 14 | 201 | 11.3 | 33.8 | 0.00 | 0.00 | 0.00 | 85 | 1007.1 |
| 20260506204622 | 14 | 179 | 9.7 | 33.8 | 0.00 | 0.00 | 0.00 | 85 | 1007.3 |
| 20260506203605 | 15 | 201 | 9.7 | 25.7 | 0.00 | 0.00 | 0.00 | 85 | 1007.3 |
| 20260506203505 | 15 | 201 | 9.7 | 25.7 | 0.00 | 0.00 | 0.00 | 85 | 1007.3 |
| 20260506203405 | 15 | 202 | 9.7 | 25.7 | 0.00 | 0.00 | 0.00 | 85 | 1007.2 |
| 20260506203305 | 15 | 200 | 9.7 | 25.7 | 0.00 | 0.00 | 0.00 | 85 | 1007.2 |
| 20260506203205 | 15 | 201 | 9.7 | 29.0 | 0.00 | 0.00 | 0.00 | 85 | 1007.2 |
| 20260506203145 | 15 | 173 | 9.7 | 29.0 | 0.00 | 0.00 | 0.00 | 85 | 1007.4 |
| 20260506203106 | 15 | 203 | 9.7 | 29.0 | 0.00 | 0.00 | 0.00 | 85 | 1007.3 |
| 20260506203005 | 15 | 208 | 9.7 | 29.0 | 0.00 | 0.00 | 0.00 | 85 | 1007.3 |
| 20260506202905 | 15 | 207 | 9.7 | 29.0 | 0.00 | 0.00 | 0.00 | 85 | 1007.4 |
| 20260506202805 | 15 | 209 | 9.7 | 29.0 | 0.00 | 0.00 | 0.00 | 85 | 1007.4 |
| 20260506202706 | 15 | 209 | 9.7 | 29.0 | 0.00 | 0.00 | 0.00 | 85 | 1007.4 |
| 20260506202605 | 15 | 205 | 9.7 | 29.0 | 0.00 | 0.00 | 0.00 | 85 | 1007.4 |
| 20260506202505 | 15 | 206 | 9.7 | 29.0 | 0.00 | 0.00 | 0.00 | 85 | 1007.4 |
| 20260506202405 | 15 | 207 | 9.7 | 29.0 | 0.00 | 0.00 | 0.00 | 84 | 1007.3 |
| 20260506202306 | 15 | 207 | 9.7 | 29.0 | 0.00 | 0.00 | 0.00 | 84 | 1007.4 |
| 20260506202205 | 15 | 208 | 9.7 | 25.7 | 0.00 | 0.00 | 0.00 | 85 | 1007.3 |
| 20260506202105 | 15 | 209 | 9.7 | 25.7 | 0.00 | 0.00 | 0.00 | 84 | 1007.3 |
| 20260506202005 | 15 | 206 | 9.7 | 25.7 | 0.00 | 0.00 | 0.00 | 84 | 1007.1 |
| 20260506201905 | 15 | 203 | 9.7 | 25.7 | 0.00 | 0.00 | 0.00 | 84 | 1007.1 |
| 20260506201805 | 15 | 203 | 9.7 | 25.7 | 0.00 | 0.00 | 0.00 | 84 | 1007.1 |
| 20260506201705 | 15 | 205 | 9.7 | 25.7 | 0.00 | 0.00 | 0.00 | 84 | 1007.1 |
| 20260506201620 | 15 | 185 | 6.4 | 25.7 | 0.00 | 0.00 | 0.00 | 84 | 1007.3 |
| 20260506201605 | 15 | 204 | 9.7 | 25.7 | 0.00 | 0.00 | 0.00 | 84 | 1007.1 |
| 20260506201505 | 15 | 205 | 11.3 | 25.7 | 0.00 | 0.00 | 0.00 | 84 | 1007.1 |
| 20260506201405 | 15 | 202 | 9.7 | 25.7 | 0.00 | 0.00 | 0.00 | 84 | 1007.2 |
| 20260506201305 | 15 | 203 | 9.7 | 25.7 | 0.00 | 0.00 | 0.00 | 84 | 1007.0 |
| 20260506201205 | 15 | 202 | 11.3 | 25.7 | 0.00 | 0.00 | 0.00 | 84 | 1007.0 |
| 20260506201106 | 15 | 199 | 12.9 | 35.4 | 0.00 | 0.00 | 0.00 | 84 | 1006.8 |
| 20260506201005 | 15 | 200 | 12.9 | 35.4 | 0.00 | 0.00 | 0.00 | 84 | 1006.9 |
| 20260506200905 | 15 | 201 | 12.9 | 35.4 | 0.00 | 0.00 | 0.00 | 84 | 1007.0 |
| 20260506200804 | 15 | 201 | 12.9 | 35.4 | 0.00 | 0.00 | 0.00 | 84 | 1007.2 |
| 20260506200705 | 15 | 197 | 12.9 | 35.4 | 0.00 | 0.00 | 0.00 | 84 | 1007.1 |
| 20260506200605 | 15 | 198 | 14.5 | 35.4 | 0.00 | 0.00 | 0.00 | 84 | 1007.1 |
| 20260506200505 | 15 | 196 | 14.5 | 35.4 | 0.00 | 0.00 | 0.00 | 84 | 1007.1 |
| 20260506200405 | 15 | 198 | 12.9 | 35.4 | 0.00 | 0.00 | 0.00 | 84 | 1007.1 |
| 20260506200305 | 15 | 197 | 12.9 | 35.4 | 0.00 | 0.00 | 0.00 | 84 | 1007.2 |
| 20260506200205 | 15 | 196 | 12.9 | 35.4 | 0.00 | 0.00 | 0.00 | 85 | 1007.2 |
| 20260506200108 | 15 | 157 | 16.1 | 30.6 | 0.00 | 0.00 | 0.00 | 85 | 1007.3 |
| 20260506200105 | 15 | 196 | 12.9 | 30.6 | 0.00 | 0.00 | 0.00 | 85 | 1007.2 |
| 20260506200006 | 15 | 196 | 12.9 | 35.4 | 0.00 | 0.00 | 0.00 | 85 | 1007.2 |
| 20260506195905 | 15 | 197 | 11.3 | 35.4 | 0.00 | 0.00 | 0.00 | 85 | 1007.0 |
| 20260506195805 | 15 | 195 | 11.3 | 35.4 | 0.00 | 0.00 | 0.00 | 85 | 1007.0 |
| 20260506195705 | 15 | 195 | 11.3 | 35.4 | 0.00 | 0.00 | 0.00 | 85 | 1007.1 |
| 20260506195605 | 15 | 197 | 11.3 | 35.4 | 0.00 | 0.00 | 0.00 | 85 | 1007.2 |
| 20260506195505 | 15 | 196 | 11.3 | 35.4 | 0.00 | 0.00 | 0.00 | 85 | 1007.2 |
| 20260506195405 | 15 | 193 | 12.9 | 35.4 | 0.00 | 0.00 | 0.00 | 85 | 1007.1 |
| 20260506195306 | 15 | 193 | 12.9 | 35.4 | 0.00 | 0.00 | 0.00 | 85 | 1007.1 |
| 20260506195205 | 15 | 193 | 12.9 | 35.4 | 0.00 | 0.00 | 0.00 | 85 | 1007.2 |
| 20260506195105 | 15 | 194 | 11.3 | 35.4 | 0.00 | 0.00 | 0.00 | 85 | 1007.2 |
| 20260506195005 | 15 | 192 | 11.3 | 32.2 | 0.00 | 0.00 | 0.00 | 85 | 1007.1 |
| 20260506194905 | 15 | 193 | 11.3 | 32.2 | 0.00 | 0.00 | 0.00 | 85 | 1007.2 |
| 20260506194804 | 15 | 196 | 12.9 | 32.2 | 0.00 | 0.00 | 0.00 | 85 | 1007.2 |
| 20260506194705 | 15 | 196 | 12.9 | 32.2 | 0.00 | 0.00 | 0.00 | 85 | 1007.3 |
| 20260506194616 | 15 | 218 | 12.9 | 32.2 | 0.00 | 0.00 | 0.00 | 85 | 1007.5 |
| 20260506194605 | 15 | 192 | 12.9 | 32.2 | 0.00 | 0.00 | 0.00 | 85 | 1007.3 |
| 20260506194505 | 15 | 193 | 12.9 | 32.2 | 0.00 | 0.00 | 0.00 | 85 | 1007.3 |
| 20260506194405 | 15 | 192 | 12.9 | 32.2 | 0.00 | 0.00 | 0.00 | 85 | 1007.1 |
| 20260506194304 | 15 | 194 | 12.9 | 32.2 | 0.00 | 0.00 | 0.00 | 85 | 1007.3 |
| 20260506194205 | 15 | 193 | 14.5 | 32.2 | 0.00 | 0.00 | 0.00 | 85 | 1007.3 |
| 20260506194105 | 15 | 191 | 12.9 | 32.2 | 0.00 | 0.00 | 0.00 | 85 | 1007.3 |
| 20260506194005 | 15 | 194 | 12.9 | 30.6 | 0.00 | 0.00 | 0.00 | 85 | 1007.2 |
| 20260506193905 | 15 | 193 | 14.5 | 30.6 | 0.00 | 0.00 | 0.00 | 85 | 1007.2 |
| 20260506193805 | 15 | 189 | 12.9 | 30.6 | 0.00 | 0.00 | 0.00 | 85 | 1007.3 |
| 20260506193705 | 15 | 190 | 12.9 | 29.0 | 0.00 | 0.00 | 0.00 | 85 | 1007.3 |
| 20260506193605 | 15 | 191 | 12.9 | 29.0 | 0.00 | 0.00 | 0.00 | 85 | 1007.3 |
| 20260506193505 | 15 | 190 | 11.3 | 29.0 | 0.00 | 0.00 | 0.00 | 85 | 1007.3 |
| 20260506193405 | 15 | 192 | 12.9 | 27.4 | 0.00 | 0.00 | 0.00 | 85 | 1007.4 |
| 20260506193305 | 15 | 192 | 11.3 | 29.0 | 0.00 | 0.00 | 0.00 | 85 | 1007.4 |
| 20260506193205 | 15 | 193 | 12.9 | 29.0 | 0.00 | 0.00 | 0.00 | 85 | 1007.5 |
| 20260506193107 | 15 | 69 | 11.3 | 29.0 | 0.00 | 0.00 | 0.00 | 85 | 1007.7 |
| 20260506193005 | 15 | 194 | 12.9 | 37.0 | 0.00 | 0.00 | 0.00 | 85 | 1007.4 |
| 20260506192905 | 15 | 196 | 12.9 | 37.0 | 0.00 | 0.00 | 0.00 | 85 | 1007.4 |
| 20260506192805 | 15 | 198 | 12.9 | 37.0 | 0.00 | 0.00 | 0.00 | 85 | 1007.4 |
| 20260506192706 | 15 | 200 | 12.9 | 37.0 | 0.00 | 0.00 | 0.00 | 85 | 1007.5 |
| 20260506192605 | 15 | 199 | 12.9 | 37.0 | 0.00 | 0.00 | 0.00 | 85 | 1007.5 |
| 20260506192505 | 15 | 200 | 12.9 | 37.0 | 0.00 | 0.00 | 0.00 | 85 | 1007.5 |
| 20260506192405 | 15 | 201 | 11.3 | 37.0 | 0.00 | 0.00 | 0.00 | 85 | 1007.6 |
| 20260506192306 | 15 | 201 | 11.3 | 37.0 | 0.00 | 0.00 | 0.00 | 85 | 1007.5 |
| 20260506192205 | 15 | 203 | 11.3 | 37.0 | 0.00 | 0.00 | 0.00 | 85 | 1007.6 |
| 20260506192105 | 15 | 204 | 9.7 | 29.0 | 0.00 | 0.00 | 0.00 | 85 | 1007.7 |
| 20260506192005 | 15 | 202 | 9.7 | 22.5 | 0.00 | 0.00 | 0.00 | 86 | 1007.6 |
| 20260506191905 | 15 | 200 | 8.0 | 22.5 | 0.00 | 0.00 | 0.00 | 86 | 1007.7 |
| 20260506191805 | 15 | 201 | 9.7 | 22.5 | 0.00 | 0.00 | 0.00 | 86 | 1007.7 |
| 20260506191705 | 15 | 201 | 9.7 | 22.5 | 0.00 | 0.00 | 0.00 | 86 | 1007.6 |
| 20260506191617 | 15 | 182 | 8.0 | 22.5 | 0.00 | 0.00 | 0.00 | 86 | 1007.9 |
| 20260506191605 | 15 | 203 | 9.7 | 27.4 | 0.00 | 0.00 | 0.00 | 86 | 1007.7 |
| 20260506191505 | 15 | 203 | 9.7 | 27.4 | 0.00 | 0.00 | 0.00 | 86 | 1007.7 |
| 20260506191405 | 15 | 202 | 9.7 | 27.4 | 0.00 | 0.00 | 0.00 | 86 | 1007.7 |
| 20260506191305 | 15 | 202 | 8.0 | 27.4 | 0.00 | 0.00 | 0.00 | 86 | 1007.8 |
| 20260506191205 | 15 | 201 | 9.7 | 27.4 | 0.00 | 0.00 | 0.00 | 86 | 1007.7 |
| 20260506191105 | 15 | 201 | 9.7 | 27.4 | 0.00 | 0.00 | 0.00 | 86 | 1007.7 |
| 20260506191005 | 15 | 200 | 9.7 | 27.4 | 0.00 | 0.00 | 0.00 | 86 | 1007.7 |
| 20260506190905 | 15 | 201 | 9.7 | 27.4 | 0.00 | 0.00 | 0.00 | 86 | 1007.8 |
| 20260506190805 | 15 | 196 | 9.7 | 27.4 | 0.00 | 0.00 | 0.00 | 86 | 1007.8 |
| 20260506190705 | 15 | 196 | 9.7 | 27.4 | 0.00 | 0.00 | 0.00 | 86 | 1007.8 |
| 20260506190606 | 15 | 195 | 9.7 | 27.4 | 0.00 | 0.00 | 0.00 | 86 | 1007.8 |
| 20260506190505 | 15 | 194 | 9.7 | 27.4 | 0.00 | 0.00 | 0.00 | 86 | 1007.9 |
| 20260506190405 | 15 | 196 | 9.7 | 27.4 | 0.00 | 0.00 | 0.00 | 86 | 1007.9 |
| 20260506190305 | 15 | 198 | 11.3 | 27.4 | 0.00 | 0.00 | 0.00 | 86 | 1008.0 |
| 20260506190205 | 15 | 199 | 11.3 | 27.4 | 0.00 | 0.00 | 0.00 | 86 | 1008.0 |
| 20260506190108 | 15 | 214 | 9.7 | 27.4 | 0.00 | 0.00 | 0.00 | 86 | 1008.2 |
| 20260506190105 | 15 | 200 | 11.3 | 27.4 | 0.00 | 0.00 | 0.00 | 86 | 1008.0 |
| 20260506190005 | 15 | 200 | 11.3 | 29.0 | 0.00 | 0.00 | 0.00 | 86 | 1007.9 |
| 20260506185905 | 15 | 201 | 11.3 | 29.0 | 0.00 | 0.00 | 0.00 | 86 | 1007.9 |
| 20260506185804 | 15 | 205 | 12.9 | 29.0 | 0.00 | 0.00 | 0.00 | 86 | 1008.0 |
| 20260506185705 | 15 | 205 | 12.9 | 29.0 | 0.00 | 0.00 | 0.00 | 86 | 1008.0 |
| 20260506185605 | 15 | 206 | 12.9 | 29.0 | 0.00 | 0.00 | 0.00 | 86 | 1008.0 |
| 20260506185505 | 15 | 207 | 12.9 | 29.0 | 0.00 | 0.00 | 0.00 | 86 | 1008.0 |
| 20260506185405 | 15 | 204 | 12.9 | 29.0 | 0.00 | 0.00 | 0.00 | 86 | 1008.0 |
| 20260506185307 | 15 | 205 | 11.3 | 29.0 | 0.00 | 0.00 | 0.00 | 86 | 1008.0 |
| 20260506185205 | 15 | 205 | 11.3 | 29.0 | 0.00 | 0.00 | 0.00 | 86 | 1008.1 |
| 20260506185105 | 15 | 203 | 11.3 | 37.0 | 0.00 | 0.00 | 0.00 | 86 | 1008.1 |
| 20260506185004 | 15 | 203 | 11.3 | 37.0 | 0.00 | 0.00 | 0.00 | 86 | 1008.2 |
| 20260506184905 | 15 | 203 | 12.9 | 37.0 | 0.00 | 0.00 | 0.00 | 86 | 1008.2 |
| 20260506184804 | 15 | 201 | 11.3 | 37.0 | 0.00 | 0.00 | 0.00 | 86 | 1008.1 |
| 20260506184705 | 15 | 202 | 12.9 | 37.0 | 0.00 | 0.00 | 0.00 | 86 | 1008.0 |
| 20260506184616 | 15 | 231 | 9.7 | 35.4 | 0.00 | 0.00 | 0.00 | 86 | 1008.3 |
| 20260506184605 | 15 | 200 | 12.9 | 37.0 | 0.00 | 0.00 | 0.00 | 86 | 1008.0 |
| 20260506184505 | 15 | 199 | 12.9 | 37.0 | 0.00 | 0.00 | 0.00 | 86 | 1008.1 |
| 20260506184405 | 15 | 198 | 12.9 | 37.0 | 0.00 | 0.00 | 0.00 | 86 | 1008.1 |
| 20260506184305 | 15 | 199 | 12.9 | 37.0 | 0.00 | 0.00 | 0.00 | 86 | 1008.1 |
| 20260506184205 | 15 | 197 | 14.5 | 37.0 | 0.00 | 0.00 | 0.00 | 86 | 1008.0 |
| 20260506184105 | 15 | 195 | 12.9 | 29.0 | 0.00 | 0.00 | 0.00 | 85 | 1008.0 |
| 20260506184005 | 15 | 196 | 12.9 | 29.0 | 0.00 | 0.00 | 0.00 | 85 | 1008.1 |
| 20260506183112 | 15 | 130 | 9.7 | 40.2 | 0.00 | 0.00 | 0.00 | 85 | 1008.4 |
| 20260506182905 | 15 | 194 | 12.9 | 38.6 | 0.00 | 0.00 | 0.00 | 85 | 1008.1 |
| 20260506182805 | 15 | 195 | 11.3 | 38.6 | 0.00 | 0.00 | 0.00 | 85 | 1008.2 |
| 20260506182705 | 15 | 195 | 12.9 | 38.6 | 0.00 | 0.00 | 0.00 | 85 | 1008.2 |
| 20260506182605 | 15 | 194 | 12.9 | 38.6 | 0.00 | 0.00 | 0.00 | 85 | 1008.3 |
| 20260506182505 | 15 | 193 | 12.9 | 38.6 | 0.00 | 0.00 | 0.00 | 85 | 1008.2 |
| 20260506182405 | 15 | 191 | 11.3 | 38.6 | 0.00 | 0.00 | 0.00 | 84 | 1008.3 |
| 20260506182306 | 15 | 191 | 11.3 | 30.6 | 0.00 | 0.00 | 0.00 | 84 | 1008.3 |
| 20260506182205 | 15 | 192 | 11.3 | 30.6 | 0.00 | 0.00 | 0.00 | 84 | 1008.3 |
| 20260506182104 | 15 | 191 | 9.7 | 30.6 | 0.00 | 0.00 | 0.00 | 84 | 1008.3 |
| 20260506182005 | 15 | 192 | 11.3 | 30.6 | 0.00 | 0.00 | 0.00 | 84 | 1008.4 |
| 20260506181905 | 15 | 189 | 11.3 | 30.6 | 0.00 | 0.00 | 0.00 | 84 | 1008.3 |
| 20260506181805 | 15 | 191 | 11.3 | 30.6 | 0.00 | 0.00 | 0.00 | 84 | 1008.4 |
| 20260506181705 | 15 | 193 | 9.7 | 30.6 | 0.00 | 0.00 | 0.00 | 84 | 1008.4 |
| 20260506181613 | 15 | 153 | 9.7 | 24.1 | 0.00 | 0.00 | 0.00 | 84 | 1008.6 |
| 20260506181605 | 15 | 192 | 9.7 | 24.1 | 0.00 | 0.00 | 0.00 | 84 | 1008.5 |
| 20260506181505 | 15 | 193 | 9.7 | 24.1 | 0.00 | 0.00 | 0.00 | 84 | 1008.5 |
| 20260506181405 | 15 | 192 | 9.7 | 24.1 | 0.00 | 0.00 | 0.00 | 84 | 1008.5 |
| 20260506181305 | 15 | 193 | 9.7 | 24.1 | 0.00 | 0.00 | 0.00 | 84 | 1008.5 |
| 20260506181205 | 15 | 193 | 9.7 | 20.9 | 0.00 | 0.00 | 0.00 | 84 | 1008.5 |
| 20260506181105 | 15 | 193 | 9.7 | 25.7 | 0.00 | 0.00 | 0.00 | 84 | 1008.5 |
| 20260506181005 | 15 | 194 | 9.7 | 25.7 | 0.00 | 0.00 | 0.00 | 84 | 1008.5 |
| 20260506180905 | 15 | 196 | 9.7 | 25.7 | 0.00 | 0.00 | 0.00 | 84 | 1008.6 |
| 20260506180805 | 15 | 194 | 9.7 | 25.7 | 0.00 | 0.00 | 0.00 | 84 | 1008.6 |
| 20260506180705 | 15 | 194 | 9.7 | 25.7 | 0.00 | 0.00 | 0.00 | 83 | 1008.6 |
| 20260506180604 | 15 | 195 | 11.3 | 25.7 | 0.00 | 0.00 | 0.00 | 83 | 1008.6 |
| 20260506180505 | 15 | 193 | 11.3 | 25.7 | 0.00 | 0.00 | 0.00 | 83 | 1008.6 |
| 20260506180405 | 15 | 193 | 11.3 | 25.7 | 0.00 | 0.00 | 0.00 | 83 | 1008.6 |
| 20260506180305 | 15 | 193 | 11.3 | 25.7 | 0.00 | 0.00 | 0.00 | 83 | 1008.6 |
| 20260506180206 | 15 | 194 | 11.3 | 25.7 | 0.00 | 0.00 | 0.00 | 83 | 1008.6 |
| 20260506180105 | 15 | 194 | 11.3 | 24.1 | 0.00 | 0.00 | 0.00 | 83 | 1008.7 |
| 20260506180006 | 15 | 202 | 8.0 | 25.7 | 0.00 | 0.00 | 0.00 | 83 | 1008.9 |
| 20260506175905 | 15 | 193 | 11.3 | 24.1 | 0.00 | 0.00 | 0.00 | 83 | 1008.7 |
| 20260506175805 | 15 | 194 | 11.3 | 24.1 | 0.00 | 0.00 | 0.00 | 83 | 1008.7 |
| 20260506175705 | 15 | 191 | 11.3 | 30.6 | 0.00 | 0.00 | 0.00 | 82 | 1008.6 |
| 20260506175605 | 15 | 189 | 11.3 | 30.6 | 0.00 | 0.00 | 0.00 | 82 | 1008.6 |
| 20260506175505 | 15 | 190 | 11.3 | 30.6 | 0.00 | 0.00 | 0.00 | 82 | 1008.7 |
| 20260506175405 | 15 | 190 | 11.3 | 30.6 | 0.00 | 0.00 | 0.00 | 82 | 1008.8 |
| 20260506175306 | 15 | 191 | 11.3 | 30.6 | 0.00 | 0.00 | 0.00 | 82 | 1008.8 |
| 20260506175204 | 15 | 193 | 11.3 | 30.6 | 0.00 | 0.00 | 0.00 | 82 | 1008.8 |
| 20260506175105 | 16 | 192 | 11.3 | 30.6 | 0.00 | 0.00 | 0.00 | 81 | 1009.0 |
| 20260506175005 | 16 | 193 | 11.3 | 30.6 | 0.00 | 0.00 | 0.00 | 81 | 1009.0 |
| 20260506174905 | 16 | 193 | 11.3 | 30.6 | 0.00 | 0.00 | 0.00 | 81 | 1008.9 |
| 20260506174805 | 16 | 194 | 11.3 | 30.6 | 0.00 | 0.00 | 0.00 | 81 | 1009.0 |
| 20260506174705 | 16 | 195 | 9.7 | 25.7 | 0.00 | 0.00 | 0.00 | 81 | 1009.1 |
| 20260506174611 | 15 | 210 | 8.0 | 25.7 | 0.00 | 0.00 | 0.00 | 81 | 1009.3 |
| 20260506174605 | 16 | 196 | 9.7 | 25.7 | 0.00 | 0.00 | 0.00 | 81 | 1009.2 |
| 20260506174505 | 16 | 198 | 9.7 | 25.7 | 0.00 | 0.00 | 0.00 | 81 | 1009.2 |
| 20260506174405 | 16 | 198 | 9.7 | 25.7 | 0.00 | 0.00 | 0.00 | 81 | 1009.2 |
| 20260506174305 | 16 | 199 | 9.7 | 25.7 | 0.00 | 0.00 | 0.00 | 81 | 1009.2 |
| 20260506174205 | 16 | 196 | 9.7 | 25.7 | 0.00 | 0.00 | 0.00 | 81 | 1009.1 |
| 20260506174105 | 16 | 199 | 9.7 | 25.7 | 0.00 | 0.00 | 0.00 | 80 | 1009.2 |
| 20260506174005 | 16 | 198 | 9.7 | 25.7 | 0.00 | 0.00 | 0.00 | 80 | 1009.2 |
| 20260506173904 | 16 | 201 | 9.7 | 29.0 | 0.00 | 0.00 | 0.00 | 80 | 1009.3 |
| 20260506173805 | 16 | 200 | 9.7 | 29.0 | 0.00 | 0.00 | 0.00 | 80 | 1009.3 |
| 20260506173705 | 16 | 203 | 11.3 | 29.0 | 0.00 | 0.00 | 0.00 | 80 | 1009.3 |
| 20260506173605 | 16 | 202 | 11.3 | 29.0 | 0.00 | 0.00 | 0.00 | 79 | 1009.4 |
| 20260506173505 | 16 | 200 | 11.3 | 29.0 | 0.00 | 0.00 | 0.00 | 79 | 1009.4 |
| 20260506173405 | 16 | 199 | 11.3 | 29.0 | 0.00 | 0.00 | 0.00 | 79 | 1009.4 |
| 20260506173305 | 16 | 201 | 11.3 | 29.0 | 0.00 | 0.00 | 0.00 | 79 | 1009.4 |
| 20260506173205 | 16 | 203 | 11.3 | 29.0 | 0.00 | 0.00 | 0.00 | 79 | 1009.5 |
| 20260506173120 | 16 | 231 | 9.7 | 30.6 | 0.00 | 0.00 | 0.00 | 79 | 1009.8 |
| 20260506173105 | 16 | 201 | 11.3 | 29.0 | 0.00 | 0.00 | 0.00 | 79 | 1009.5 |
| 20260506173005 | 16 | 202 | 11.3 | 29.0 | 0.00 | 0.00 | 0.00 | 79 | 1009.5 |
| 20260506172905 | 16 | 201 | 11.3 | 27.4 | 0.00 | 0.00 | 0.00 | 79 | 1009.4 |
| 20260506172805 | 16 | 201 | 11.3 | 27.4 | 0.00 | 0.00 | 0.00 | 79 | 1009.5 |
| 20260506172705 | 16 | 203 | 11.3 | 29.0 | 0.00 | 0.00 | 0.00 | 79 | 1009.5 |
| 20260506172604 | 16 | 205 | 11.3 | 29.0 | 0.00 | 0.00 | 0.00 | 78 | 1009.5 |
| 20260506172505 | 16 | 204 | 11.3 | 29.0 | 0.00 | 0.00 | 0.00 | 78 | 1009.4 |
| 20260506172404 | 16 | 206 | 11.3 | 29.0 | 0.00 | 0.00 | 0.00 | 77 | 1009.4 |
| 20260506172307 | 16 | 205 | 11.3 | 29.0 | 0.00 | 0.00 | 0.00 | 77 | 1009.4 |
| 20260506172205 | 16 | 204 | 11.3 | 29.0 | 0.00 | 0.00 | 0.00 | 77 | 1009.5 |
| 20260506171612 | 16 | 202 | 9.7 | 33.8 | 0.00 | 0.00 | 0.00 | 77 | 1009.7 |
| 20260506171505 | 16 | 199 | 11.3 | 27.4 | 0.00 | 0.00 | 0.00 | 77 | 1009.4 |
| 20260506171405 | 17 | 198 | 11.3 | 29.0 | 0.00 | 0.00 | 0.00 | 77 | 1009.3 |
| 20260506171305 | 17 | 198 | 11.3 | 29.0 | 0.00 | 0.00 | 0.00 | 76 | 1009.4 |
| 20260506171205 | 17 | 199 | 11.3 | 29.0 | 0.00 | 0.00 | 0.00 | 76 | 1009.4 |
| 20260506171106 | 17 | 200 | 9.7 | 29.0 | 0.00 | 0.00 | 0.00 | 76 | 1009.4 |
| 20260506171005 | 17 | 199 | 9.7 | 29.0 | 0.00 | 0.00 | 0.00 | 76 | 1009.4 |
| 20260506170905 | 17 | 202 | 9.7 | 32.2 | 0.00 | 0.00 | 0.00 | 76 | 1009.4 |
| 20260506170804 | 17 | 199 | 9.7 | 32.2 | 0.00 | 0.00 | 0.00 | 76 | 1009.5 |
| 20260506170705 | 17 | 201 | 9.7 | 32.2 | 0.00 | 0.00 | 0.00 | 76 | 1009.4 |
| 20260506170605 | 17 | 204 | 11.3 | 32.2 | 0.00 | 0.00 | 0.00 | 76 | 1009.5 |
| 20260506170505 | 17 | 208 | 9.7 | 32.2 | 0.00 | 0.00 | 0.00 | 76 | 1009.6 |
| 20260506170117 | 16 | 238 | 9.7 | 30.6 | 0.00 | 0.00 | 0.00 | 76 | 1009.8 |
| 20260506165306 | 17 | 203 | 14.5 | 29.0 | 0.00 | 0.00 | 0.00 | 75 | 1009.5 |
| 20260506165204 | 17 | 206 | 12.9 | 29.0 | 0.00 | 0.00 | 0.00 | 75 | 1009.7 |
| 20260506165105 | 17 | 205 | 12.9 | 29.0 | 0.00 | 0.00 | 0.00 | 75 | 1009.7 |
| 20260506165005 | 17 | 205 | 12.9 | 29.0 | 0.00 | 0.00 | 0.00 | 75 | 1009.6 |
| 20260506164905 | 17 | 205 | 12.9 | 29.0 | 0.00 | 0.00 | 0.00 | 75 | 1009.7 |
| 20260506164805 | 17 | 205 | 11.3 | 29.0 | 0.00 | 0.00 | 0.00 | 75 | 1009.6 |
| 20260506164705 | 17 | 205 | 11.3 | 29.0 | 0.00 | 0.00 | 0.00 | 75 | 1009.6 |
| 20260506164605 | 17 | 204 | 12.9 | 29.0 | 0.00 | 0.00 | 0.00 | 75 | 1009.6 |
| 20260506164505 | 17 | 206 | 12.9 | 35.4 | 0.00 | 0.00 | 0.00 | 75 | 1009.7 |
| 20260506164404 | 17 | 207 | 14.5 | 37.0 | 0.00 | 0.00 | 0.00 | 75 | 1009.7 |
| 20260506164305 | 17 | 205 | 14.5 | 37.0 | 0.00 | 0.00 | 0.00 | 75 | 1009.6 |
| 20260506164205 | 17 | 203 | 14.5 | 40.2 | 0.00 | 0.00 | 0.00 | 75 | 1009.7 |
| 20260506164105 | 17 | 200 | 14.5 | 40.2 | 0.00 | 0.00 | 0.00 | 75 | 1009.6 |
| 20260506164005 | 17 | 202 | 14.5 | 40.2 | 0.00 | 0.00 | 0.00 | 75 | 1009.7 |
| 20260506163905 | 17 | 203 | 14.5 | 40.2 | 0.00 | 0.00 | 0.00 | 75 | 1009.8 |
| 20260506163805 | 17 | 204 | 14.5 | 40.2 | 0.00 | 0.00 | 0.00 | 75 | 1009.8 |
| 20260506163705 | 17 | 203 | 14.5 | 40.2 | 0.00 | 0.00 | 0.00 | 75 | 1009.8 |
| 20260506163605 | 17 | 204 | 12.9 | 40.2 | 0.00 | 0.00 | 0.00 | 75 | 1009.8 |
| 20260506163505 | 17 | 205 | 11.3 | 40.2 | 0.00 | 0.00 | 0.00 | 75 | 1009.8 |
| 20260506163405 | 17 | 203 | 11.3 | 40.2 | 0.00 | 0.00 | 0.00 | 75 | 1009.8 |
| 20260506163305 | 17 | 203 | 11.3 | 40.2 | 0.00 | 0.00 | 0.00 | 75 | 1009.9 |
| 20260506163205 | 17 | 206 | 11.3 | 30.6 | 0.00 | 0.00 | 0.00 | 74 | 1009.8 |
| 20260506163141 | 17 | 208 | 11.3 | 30.6 | 0.00 | 0.00 | 0.00 | 74 | 1010.0 |
| 20260506163104 | 17 | 206 | 11.3 | 30.6 | 0.00 | 0.00 | 0.00 | 74 | 1009.8 |
| 20260506163005 | 17 | 202 | 11.3 | 38.6 | 0.00 | 0.00 | 0.00 | 74 | 1009.8 |
| 20260506162905 | 17 | 202 | 11.3 | 38.6 | 0.00 | 0.00 | 0.00 | 74 | 1009.7 |
| 20260506162805 | 17 | 201 | 11.3 | 38.6 | 0.00 | 0.00 | 0.00 | 74 | 1009.7 |
| 20260506162705 | 17 | 203 | 12.9 | 38.6 | 0.00 | 0.00 | 0.00 | 74 | 1009.7 |
| 20260506162604 | 17 | 203 | 11.3 | 38.6 | 0.00 | 0.00 | 0.00 | 74 | 1009.8 |
| 20260506162505 | 17 | 200 | 12.9 | 38.6 | 0.00 | 0.00 | 0.00 | 74 | 1009.8 |
| 20260506162405 | 17 | 202 | 12.9 | 38.6 | 0.00 | 0.00 | 0.00 | 74 | 1009.8 |
| 20260506162307 | 17 | 201 | 12.9 | 38.6 | 0.00 | 0.00 | 0.00 | 74 | 1009.8 |
| 20260506162205 | 17 | 200 | 11.3 | 38.6 | 0.00 | 0.00 | 0.00 | 74 | 1009.8 |
| 20260506162105 | 17 | 203 | 11.3 | 38.6 | 0.00 | 0.00 | 0.00 | 74 | 1009.8 |
| 20260506162005 | 17 | 205 | 9.7 | 29.0 | 0.00 | 0.00 | 0.00 | 74 | 1009.9 |
| 20260506161905 | 17 | 202 | 11.3 | 25.7 | 0.00 | 0.00 | 0.00 | 74 | 1009.8 |
| 20260506161805 | 17 | 202 | 11.3 | 27.4 | 0.00 | 0.00 | 0.00 | 74 | 1009.8 |
| 20260506161705 | 17 | 203 | 9.7 | 27.4 | 0.00 | 0.00 | 0.00 | 74 | 1009.8 |
| 20260506161619 | 17 | 196 | 9.7 | 27.4 | 0.00 | 0.00 | 0.00 | 74 | 1010.0 |
| 20260506161105 | 17 | 200 | 12.9 | 32.2 | 0.00 | 0.00 | 0.00 | 74 | 1009.7 |
| 20260506161005 | 17 | 200 | 12.9 | 32.2 | 0.00 | 0.00 | 0.00 | 74 | 1009.8 |
| 20260506160905 | 17 | 200 | 12.9 | 32.2 | 0.00 | 0.00 | 0.00 | 74 | 1009.9 |
| 20260506160805 | 17 | 201 | 12.9 | 32.2 | 0.00 | 0.00 | 0.00 | 74 | 1010.0 |
| 20260506160705 | 17 | 200 | 12.9 | 32.2 | 0.00 | 0.00 | 0.00 | 74 | 1009.9 |
| 20260506160605 | 17 | 200 | 12.9 | 33.8 | 0.00 | 0.00 | 0.00 | 74 | 1009.9 |
| 20260506160504 | 17 | 200 | 12.9 | 33.8 | 0.00 | 0.00 | 0.00 | 74 | 1009.9 |
| 20260506160405 | 17 | 200 | 12.9 | 33.8 | 0.00 | 0.00 | 0.00 | 74 | 1009.8 |
| 20260506160305 | 17 | 202 | 12.9 | 33.8 | 0.00 | 0.00 | 0.00 | 74 | 1009.9 |
| 20260506160205 | 17 | 202 | 12.9 | 33.8 | 0.00 | 0.00 | 0.00 | 74 | 1009.9 |
| 20260506160112 | 17 | 148 | 8.0 | 32.2 | 0.00 | 0.00 | 0.00 | 74 | 1010.2 |
| 20260506160105 | 17 | 201 | 12.9 | 33.8 | 0.00 | 0.00 | 0.00 | 74 | 1009.9 |
| 20260506155504 | 17 | 197 | 11.3 | 32.2 | 0.00 | 0.00 | 0.00 | 75 | 1010.0 |
| 20260506155405 | 17 | 197 | 11.3 | 25.7 | 0.00 | 0.00 | 0.00 | 75 | 1010.1 |
| 20260506155306 | 17 | 196 | 11.3 | 25.7 | 0.00 | 0.00 | 0.00 | 75 | 1010.1 |
| 20260506155205 | 17 | 196 | 11.3 | 29.0 | 0.00 | 0.00 | 0.00 | 75 | 1010.1 |
| 20260506155105 | 17 | 197 | 11.3 | 29.0 | 0.00 | 0.00 | 0.00 | 75 | 1010.2 |
| 20260506155005 | 17 | 198 | 12.9 | 29.0 | 0.00 | 0.00 | 0.00 | 75 | 1010.2 |
| 20260506154905 | 17 | 199 | 14.5 | 32.2 | 0.00 | 0.00 | 0.00 | 75 | 1010.4 |
| 20260506154805 | 17 | 199 | 14.5 | 32.2 | 0.00 | 0.00 | 0.00 | 75 | 1010.2 |
| 20260506154705 | 17 | 200 | 14.5 | 33.8 | 0.00 | 0.00 | 0.00 | 75 | 1010.3 |
| 20260506154617 | 17 | 220 | 12.9 | 33.8 | 0.00 | 0.00 | 0.00 | 75 | 1010.5 |
| 20260506154604 | 17 | 201 | 12.9 | 33.8 | 0.00 | 0.00 | 0.00 | 75 | 1010.1 |
| 20260506154505 | 17 | 201 | 12.9 | 33.8 | 0.00 | 0.00 | 0.00 | 75 | 1010.3 |
| 20260506154404 | 17 | 201 | 12.9 | 33.8 | 0.00 | 0.00 | 0.00 | 75 | 1010.3 |
| 20260506154305 | 17 | 205 | 12.9 | 33.8 | 0.00 | 0.00 | 0.00 | 75 | 1010.3 |
| 20260506154205 | 17 | 206 | 11.3 | 33.8 | 0.00 | 0.00 | 0.00 | 75 | 1010.4 |
| 20260506154104 | 17 | 204 | 12.9 | 33.8 | 0.00 | 0.00 | 0.00 | 75 | 1010.4 |
| 20260506154005 | 17 | 201 | 11.3 | 33.8 | 0.00 | 0.00 | 0.00 | 75 | 1010.4 |
| 20260506153905 | 17 | 201 | 11.3 | 33.8 | 0.00 | 0.00 | 0.00 | 75 | 1010.5 |
| 20260506153804 | 17 | 202 | 11.3 | 33.8 | 0.00 | 0.00 | 0.00 | 75 | 1010.4 |
| 20260506153704 | 17 | 200 | 11.3 | 29.0 | 0.00 | 0.00 | 0.00 | 75 | 1010.5 |
| 20260506153605 | 17 | 199 | 11.3 | 29.0 | 0.00 | 0.00 | 0.00 | 75 | 1010.4 |
| 20260506153505 | 17 | 200 | 11.3 | 32.2 | 0.00 | 0.00 | 0.00 | 75 | 1010.4 |
| 20260506153405 | 17 | 201 | 11.3 | 32.2 | 0.00 | 0.00 | 0.00 | 75 | 1010.4 |
| 20260506153305 | 17 | 198 | 11.3 | 32.2 | 0.00 | 0.00 | 0.00 | 75 | 1010.3 |
| 20260506153205 | 17 | 196 | 11.3 | 32.2 | 0.00 | 0.00 | 0.00 | 75 | 1010.4 |
| 20260506153137 | 17 | 182 | 11.3 | 32.2 | 0.00 | 0.00 | 0.00 | 75 | 1010.6 |
| 20260506153105 | 17 | 196 | 11.3 | 32.2 | 0.00 | 0.00 | 0.00 | 75 | 1010.4 |
| 20260506153005 | 17 | 199 | 11.3 | 32.2 | 0.00 | 0.00 | 0.00 | 76 | 1010.4 |
| 20260506152905 | 17 | 197 | 9.7 | 32.2 | 0.00 | 0.00 | 0.00 | 76 | 1010.4 |
| 20260506152805 | 17 | 197 | 9.7 | 32.2 | 0.00 | 0.00 | 0.00 | 76 | 1010.3 |
| 20260506152705 | 17 | 199 | 9.7 | 32.2 | 0.00 | 0.00 | 0.00 | 76 | 1010.3 |
| 20260506152605 | 17 | 200 | 9.7 | 32.2 | 0.00 | 0.00 | 0.00 | 76 | 1010.2 |
| 20260506152505 | 17 | 201 | 9.7 | 29.0 | 0.00 | 0.00 | 0.00 | 76 | 1010.3 |
| 20260506152405 | 17 | 201 | 9.7 | 29.0 | 0.00 | 0.00 | 0.00 | 76 | 1010.2 |
| 20260506152306 | 17 | 204 | 9.7 | 25.7 | 0.00 | 0.00 | 0.00 | 76 | 1010.2 |
| 20260506152205 | 17 | 205 | 11.3 | 27.4 | 0.00 | 0.00 | 0.00 | 76 | 1010.2 |
| 20260506152105 | 17 | 207 | 11.3 | 27.4 | 0.00 | 0.00 | 0.00 | 76 | 1010.3 |
| 20260506152005 | 17 | 206 | 11.3 | 30.6 | 0.00 | 0.00 | 0.00 | 76 | 1010.3 |
| 20260506151905 | 17 | 210 | 12.9 | 30.6 | 0.00 | 0.00 | 0.00 | 76 | 1010.2 |
| 20260506151805 | 17 | 210 | 12.9 | 30.6 | 0.00 | 0.00 | 0.00 | 76 | 1010.1 |
| 20260506151705 | 17 | 208 | 14.5 | 30.6 | 0.00 | 0.00 | 0.00 | 75 | 1010.2 |
| 20260506151614 | 16 | 212 | 9.7 | 30.6 | 0.00 | 0.00 | 0.00 | 76 | 1010.5 |
| 20260506151605 | 17 | 206 | 14.5 | 37.0 | 0.00 | 0.00 | 0.00 | 76 | 1010.3 |
| 20260506151505 | 17 | 207 | 14.5 | 37.0 | 0.00 | 0.00 | 0.00 | 75 | 1010.2 |
| 20260506151405 | 17 | 205 | 16.1 | 37.0 | 0.00 | 0.00 | 0.00 | 75 | 1010.3 |
| 20260506151304 | 17 | 203 | 16.1 | 37.0 | 0.00 | 0.00 | 0.00 | 75 | 1010.2 |
| 20260506151205 | 17 | 204 | 16.1 | 37.0 | 0.00 | 0.00 | 0.00 | 75 | 1010.3 |
| 20260506151105 | 17 | 203 | 16.1 | 38.6 | 0.00 | 0.00 | 0.00 | 75 | 1010.2 |
| 20260506151005 | 17 | 204 | 16.1 | 38.6 | 0.00 | 0.00 | 0.00 | 75 | 1010.2 |
| 20260506150905 | 17 | 202 | 17.7 | 38.6 | 0.00 | 0.00 | 0.00 | 75 | 1010.1 |
| 20260506150804 | 17 | 199 | 16.1 | 41.8 | 0.00 | 0.00 | 0.00 | 75 | 1010.2 |
| 20260506150704 | 17 | 197 | 14.5 | 41.8 | 0.00 | 0.00 | 0.00 | 75 | 1010.1 |
| 20260506150605 | 17 | 196 | 14.5 | 41.8 | 0.00 | 0.00 | 0.00 | 75 | 1010.1 |
| 20260506150505 | 17 | 195 | 14.5 | 41.8 | 0.00 | 0.00 | 0.00 | 75 | 1010.1 |
| 20260506150405 | 17 | 197 | 14.5 | 41.8 | 0.00 | 0.00 | 0.00 | 75 | 1010.2 |
| 20260506150305 | 17 | 200 | 14.5 | 41.8 | 0.00 | 0.00 | 0.00 | 75 | 1010.1 |
| 20260506150205 | 17 | 202 | 14.5 | 41.8 | 0.00 | 0.00 | 0.00 | 75 | 1010.1 |
| 20260506150106 | 17 | 165 | 16.1 | 43.5 | 0.00 | 0.00 | 0.00 | 75 | 1010.3 |
| 20260506150104 | 17 | 201 | 14.5 | 41.8 | 0.00 | 0.00 | 0.00 | 75 | 1010.1 |
| 20260506150005 | 17 | 200 | 14.5 | 41.8 | 0.00 | 0.00 | 0.00 | 75 | 1010.2 |
| 20260506145905 | 17 | 200 | 16.1 | 48.3 | 0.00 | 0.00 | 0.00 | 75 | 1010.4 |
| 20260506145804 | 17 | 201 | 17.7 | 48.3 | 0.00 | 0.00 | 0.00 | 75 | 1010.4 |
| 20260506145705 | 17 | 203 | 19.3 | 48.3 | 0.00 | 0.00 | 0.00 | 75 | 1010.4 |
| 20260506145604 | 17 | 203 | 19.3 | 48.3 | 0.00 | 0.00 | 0.00 | 75 | 1010.4 |
| 20260506145504 | 17 | 202 | 19.3 | 48.3 | 0.00 | 0.00 | 0.00 | 75 | 1010.5 |
| 20260506145405 | 17 | 201 | 19.3 | 48.3 | 0.00 | 0.00 | 0.00 | 74 | 1010.4 |
| 20260506145306 | 17 | 199 | 19.3 | 48.3 | 0.00 | 0.00 | 0.00 | 75 | 1010.3 |
| 20260506145205 | 17 | 197 | 19.3 | 48.3 | 0.00 | 0.00 | 0.00 | 75 | 1010.4 |
| 20260506145105 | 17 | 198 | 19.3 | 48.3 | 0.00 | 0.00 | 0.00 | 75 | 1010.2 |
| 20260506145005 | 17 | 198 | 17.7 | 48.3 | 0.00 | 0.00 | 0.00 | 74 | 1010.3 |
| 20260506144905 | 17 | 199 | 16.1 | 45.1 | 0.00 | 0.00 | 0.00 | 75 | 1010.2 |
| 20260506144805 | 17 | 199 | 16.1 | 45.1 | 0.00 | 0.00 | 0.00 | 75 | 1010.3 |
| 20260506144705 | 17 | 199 | 14.5 | 45.1 | 0.00 | 0.00 | 0.00 | 75 | 1010.2 |
| 20260506144614 | 17 | 154 | 16.1 | 40.2 | 0.00 | 0.00 | 0.00 | 75 | 1010.5 |
| 20260506144605 | 17 | 199 | 14.5 | 40.2 | 0.00 | 0.00 | 0.00 | 75 | 1010.3 |
| 20260506144504 | 17 | 201 | 14.5 | 40.2 | 0.00 | 0.00 | 0.00 | 75 | 1010.3 |
| 20260506144405 | 17 | 201 | 14.5 | 40.2 | 0.00 | 0.00 | 0.00 | 75 | 1010.1 |
| 20260506144305 | 17 | 205 | 14.5 | 32.2 | 0.00 | 0.00 | 0.00 | 75 | 1010.2 |
| 20260506144205 | 17 | 205 | 14.5 | 32.2 | 0.00 | 0.00 | 0.00 | 75 | 1010.2 |
| 20260506144105 | 17 | 206 | 14.5 | 38.6 | 0.00 | 0.00 | 0.00 | 75 | 1010.1 |
| 20260506144004 | 17 | 208 | 16.1 | 38.6 | 0.00 | 0.00 | 0.00 | 75 | 1010.2 |
| 20260506143905 | 17 | 209 | 16.1 | 38.6 | 0.00 | 0.00 | 0.00 | 75 | 1010.2 |
| 20260506143805 | 17 | 209 | 16.1 | 38.6 | 0.00 | 0.00 | 0.00 | 75 | 1010.2 |
| 20260506143705 | 17 | 209 | 16.1 | 38.6 | 0.00 | 0.00 | 0.00 | 75 | 1010.2 |
| 20260506143604 | 17 | 211 | 16.1 | 38.6 | 0.00 | 0.00 | 0.00 | 76 | 1010.3 |
| 20260506143505 | 17 | 210 | 16.1 | 38.6 | 0.00 | 0.00 | 0.00 | 76 | 1010.3 |
| 20260506143405 | 17 | 210 | 16.1 | 38.6 | 0.00 | 0.00 | 0.00 | 76 | 1010.2 |
| 20260506143306 | 17 | 209 | 16.1 | 38.6 | 0.00 | 0.00 | 0.00 | 76 | 1010.2 |
| 20260506143205 | 17 | 209 | 16.1 | 38.6 | 0.00 | 0.00 | 0.00 | 76 | 1010.4 |
| 20260506143105 | 17 | 217 | 17.7 | 37.0 | 0.00 | 0.00 | 0.00 | 76 | 1010.6 |
| 20260506143005 | 17 | 205 | 16.1 | 40.2 | 0.00 | 0.00 | 0.00 | 76 | 1010.2 |
| 20260506142905 | 17 | 205 | 16.1 | 40.2 | 0.00 | 0.00 | 0.00 | 76 | 1010.3 |
| 20260506142805 | 17 | 205 | 16.1 | 40.2 | 0.00 | 0.00 | 0.00 | 76 | 1010.3 |
| 20260506142705 | 17 | 204 | 16.1 | 40.2 | 0.00 | 0.00 | 0.00 | 76 | 1010.2 |
| 20260506142605 | 17 | 201 | 16.1 | 40.2 | 0.00 | 0.00 | 0.00 | 76 | 1010.3 |
| 20260506142504 | 17 | 201 | 16.1 | 40.2 | 0.00 | 0.00 | 0.00 | 76 | 1010.3 |
| 20260506142405 | 17 | 201 | 16.1 | 40.2 | 0.00 | 0.00 | 0.00 | 76 | 1010.3 |
| 20260506142306 | 17 | 204 | 16.1 | 40.2 | 0.00 | 0.00 | 0.00 | 76 | 1010.4 |
| 20260506141612 | 16 | 198 | 14.5 | 41.8 | 0.00 | 0.00 | 0.00 | 76 | 1010.8 |
| 20260506141604 | 17 | 210 | 16.1 | 43.5 | 0.00 | 0.00 | 0.00 | 76 | 1010.6 |
| 20260506141504 | 17 | 210 | 17.7 | 43.5 | 0.00 | 0.00 | 0.00 | 76 | 1010.7 |
| 20260506141404 | 17 | 209 | 17.7 | 43.5 | 0.00 | 0.00 | 0.00 | 76 | 1010.6 |
| 20260506141305 | 17 | 206 | 16.1 | 43.5 | 0.00 | 0.00 | 0.00 | 76 | 1010.7 |
| 20260506141204 | 17 | 207 | 16.1 | 43.5 | 0.00 | 0.00 | 0.00 | 76 | 1010.7 |
| 20260506141105 | 16 | 208 | 16.1 | 43.5 | 0.00 | 0.00 | 0.00 | 76 | 1010.7 |
| 20260506141005 | 16 | 207 | 16.1 | 37.0 | 0.00 | 0.00 | 0.00 | 76 | 1010.6 |
| 20260506140905 | 16 | 206 | 16.1 | 37.0 | 0.00 | 0.00 | 0.00 | 76 | 1010.6 |
| 20260506140805 | 16 | 208 | 16.1 | 37.0 | 0.00 | 0.00 | 0.00 | 76 | 1010.6 |
| 20260506140705 | 16 | 208 | 16.1 | 37.0 | 0.00 | 0.00 | 0.00 | 76 | 1010.7 |
| 20260506140604 | 16 | 210 | 16.1 | 37.0 | 0.00 | 0.00 | 0.00 | 76 | 1010.6 |
| 20260506140505 | 16 | 210 | 16.1 | 37.0 | 0.00 | 0.00 | 0.00 | 76 | 1010.7 |
| 20260506140405 | 16 | 212 | 16.1 | 38.6 | 0.00 | 0.00 | 0.00 | 76 | 1010.7 |
| 20260506140305 | 16 | 214 | 16.1 | 38.6 | 0.00 | 0.00 | 0.00 | 76 | 1010.7 |
| 20260506140204 | 17 | 214 | 16.1 | 38.6 | 0.00 | 0.00 | 0.00 | 76 | 1010.7 |
| 20260506140105 | 17 | 213 | 17.7 | 38.6 | 0.00 | 0.00 | 0.00 | 76 | 1010.7 |
| 20260506140010 | 16 | 116 | 17.7 | 37.0 | 0.00 | 0.00 | 0.00 | 76 | 1010.8 |
| 20260506140005 | 17 | 212 | 17.7 | 43.5 | 0.00 | 0.00 | 0.00 | 76 | 1010.6 |
| 20260506135905 | 17 | 214 | 17.7 | 54.7 | 0.00 | 0.00 | 0.00 | 76 | 1010.6 |
| 20260506135805 | 17 | 214 | 17.7 | 54.7 | 0.00 | 0.00 | 0.00 | 76 | 1010.5 |
| 20260506135704 | 17 | 216 | 17.7 | 54.7 | 0.00 | 0.00 | 0.00 | 76 | 1010.5 |
| 20260506135605 | 17 | 215 | 17.7 | 54.7 | 0.00 | 0.00 | 0.00 | 76 | 1010.4 |
| 20260506135505 | 17 | 214 | 17.7 | 54.7 | 0.00 | 0.00 | 0.00 | 76 | 1010.7 |
| 20260506135404 | 17 | 214 | 17.7 | 54.7 | 0.00 | 0.00 | 0.00 | 76 | 1010.6 |
| 20260506135306 | 17 | 213 | 17.7 | 54.7 | 0.00 | 0.00 | 0.00 | 76 | 1010.5 |
| 20260506135204 | 17 | 212 | 17.7 | 54.7 | 0.00 | 0.00 | 0.00 | 75 | 1010.6 |
| 20260506135105 | 17 | 212 | 16.1 | 54.7 | 0.00 | 0.00 | 0.00 | 75 | 1010.5 |
| 20260506135005 | 17 | 212 | 16.1 | 54.7 | 0.00 | 0.00 | 0.00 | 75 | 1010.6 |
| 20260506134905 | 17 | 210 | 16.1 | 41.8 | 0.00 | 0.00 | 0.00 | 76 | 1010.5 |
| 20260506134804 | 17 | 209 | 16.1 | 45.1 | 0.00 | 0.00 | 0.00 | 76 | 1010.4 |
| 20260506134705 | 17 | 207 | 14.5 | 45.1 | 0.00 | 0.00 | 0.00 | 75 | 1010.5 |
| 20260506134610 | 16 | 244 | 16.1 | 43.5 | 0.00 | 0.00 | 0.00 | 76 | 1010.7 |
| 20260506134605 | 17 | 204 | 16.1 | 45.1 | 0.00 | 0.00 | 0.00 | 76 | 1010.4 |
| 20260506134505 | 17 | 204 | 14.5 | 45.1 | 0.00 | 0.00 | 0.00 | 76 | 1010.5 |
| 20260506134405 | 17 | 204 | 14.5 | 45.1 | 0.00 | 0.00 | 0.00 | 76 | 1010.5 |
| 20260506134305 | 17 | 205 | 14.5 | 45.1 | 0.00 | 0.00 | 0.00 | 76 | 1010.4 |
| 20260506134205 | 17 | 207 | 14.5 | 45.1 | 0.00 | 0.00 | 0.00 | 76 | 1010.5 |
| 20260506134105 | 17 | 206 | 14.5 | 45.1 | 0.00 | 0.00 | 0.00 | 76 | 1010.4 |
| 20260506134005 | 17 | 205 | 14.5 | 45.1 | 0.00 | 0.00 | 0.00 | 76 | 1010.5 |
| 20260506133905 | 17 | 204 | 14.5 | 45.1 | 0.00 | 0.00 | 0.00 | 76 | 1010.4 |
| 20260506133805 | 17 | 201 | 14.5 | 37.0 | 0.00 | 0.00 | 0.00 | 76 | 1010.4 |
| 20260506133705 | 17 | 199 | 14.5 | 37.0 | 0.00 | 0.00 | 0.00 | 76 | 1010.4 |
| 20260506133605 | 17 | 204 | 14.5 | 37.0 | 0.00 | 0.00 | 0.00 | 76 | 1010.4 |
| 20260506133505 | 17 | 204 | 12.9 | 37.0 | 0.00 | 0.00 | 0.00 | 76 | 1010.4 |
| 20260506133405 | 17 | 204 | 12.9 | 37.0 | 0.00 | 0.00 | 0.00 | 76 | 1010.4 |
| 20260506133305 | 17 | 202 | 12.9 | 37.0 | 0.00 | 0.00 | 0.00 | 76 | 1010.4 |
| 20260506133205 | 17 | 200 | 12.9 | 37.0 | 0.00 | 0.00 | 0.00 | 76 | 1010.4 |
| 20260506133119 | 16 | 190 | 12.9 | 35.4 | 0.00 | 0.00 | 0.00 | 76 | 1010.6 |
| 20260506133105 | 17 | 203 | 12.9 | 30.6 | 0.00 | 0.00 | 0.00 | 76 | 1010.3 |
| 20260506133005 | 17 | 204 | 14.5 | 30.6 | 0.00 | 0.00 | 0.00 | 76 | 1010.3 |
| 20260506132905 | 17 | 205 | 14.5 | 30.6 | 0.00 | 0.00 | 0.00 | 76 | 1010.2 |
| 20260506132804 | 17 | 208 | 12.9 | 33.8 | 0.00 | 0.00 | 0.00 | 76 | 1010.3 |
| 20260506132705 | 17 | 210 | 12.9 | 33.8 | 0.00 | 0.00 | 0.00 | 76 | 1010.4 |
| 20260506132605 | 17 | 207 | 12.9 | 33.8 | 0.00 | 0.00 | 0.00 | 76 | 1010.3 |
| 20260506132505 | 17 | 209 | 14.5 | 33.8 | 0.00 | 0.00 | 0.00 | 76 | 1010.4 |
| 20260506132405 | 17 | 209 | 14.5 | 33.8 | 0.00 | 0.00 | 0.00 | 76 | 1010.3 |
| 20260506132307 | 17 | 212 | 14.5 | 33.8 | 0.00 | 0.00 | 0.00 | 76 | 1010.4 |
| 20260506132204 | 17 | 211 | 14.5 | 43.5 | 0.00 | 0.00 | 0.00 | 76 | 1010.4 |
| 20260506132105 | 17 | 208 | 14.5 | 43.5 | 0.00 | 0.00 | 0.00 | 76 | 1010.5 |
| 20260506132005 | 17 | 207 | 14.5 | 43.5 | 0.00 | 0.00 | 0.00 | 76 | 1010.4 |
| 20260506131904 | 17 | 207 | 16.1 | 43.5 | 0.00 | 0.00 | 0.00 | 76 | 1010.4 |
| 20260506131610 | 16 | 188 | 12.9 | 43.5 | 0.00 | 0.00 | 0.00 | 76 | 1010.6 |
| 20260506131205 | 17 | 203 | 16.1 | 41.8 | 0.00 | 0.00 | 0.00 | 76 | 1010.2 |
| 20260506131105 | 17 | 202 | 14.5 | 35.4 | 0.00 | 0.00 | 0.00 | 76 | 1010.3 |
| 20260506131005 | 17 | 204 | 16.1 | 35.4 | 0.00 | 0.00 | 0.00 | 76 | 1010.1 |
| 20260506130905 | 17 | 205 | 14.5 | 35.4 | 0.00 | 0.00 | 0.00 | 77 | 1010.2 |
| 20260506130805 | 16 | 202 | 16.1 | 35.4 | 0.00 | 0.00 | 0.00 | 77 | 1010.3 |
| 20260506130705 | 16 | 200 | 16.1 | 41.8 | 0.00 | 0.00 | 0.00 | 77 | 1010.3 |
| 20260506130605 | 16 | 199 | 16.1 | 41.8 | 0.00 | 0.00 | 0.00 | 77 | 1010.3 |
| 20260506130505 | 16 | 201 | 17.7 | 41.8 | 0.00 | 0.00 | 0.00 | 77 | 1010.3 |
| 20260506130405 | 16 | 200 | 17.7 | 41.8 | 0.00 | 0.00 | 0.00 | 77 | 1010.3 |
| 20260506130305 | 16 | 200 | 17.7 | 46.7 | 0.00 | 0.00 | 0.00 | 77 | 1010.4 |
| 20260506130205 | 16 | 201 | 17.7 | 46.7 | 0.00 | 0.00 | 0.00 | 77 | 1010.4 |
| 20260506130121 | 16 | 231 | 16.1 | 46.7 | 0.00 | 0.00 | 0.00 | 77 | 1010.7 |
| 20260506130105 | 16 | 203 | 17.7 | 46.7 | 0.00 | 0.00 | 0.00 | 77 | 1010.6 |
| 20260506130005 | 16 | 203 | 17.7 | 46.7 | 0.00 | 0.00 | 0.00 | 77 | 1010.6 |
| 20260506125904 | 16 | 202 | 17.7 | 46.7 | 0.00 | 0.00 | 0.00 | 77 | 1010.6 |
| 20260506125805 | 16 | 204 | 17.7 | 46.7 | 0.00 | 0.00 | 0.00 | 77 | 1010.7 |
| 20260506125705 | 16 | 207 | 17.7 | 46.7 | 0.00 | 0.00 | 0.00 | 77 | 1010.6 |
| 20260506125604 | 16 | 207 | 17.7 | 46.7 | 0.00 | 0.00 | 0.00 | 77 | 1010.5 |
| 20260506125506 | 16 | 206 | 17.7 | 46.7 | 0.00 | 0.00 | 0.00 | 77 | 1010.6 |
| 20260506125405 | 16 | 206 | 17.7 | 46.7 | 0.00 | 0.00 | 0.00 | 77 | 1010.6 |
| 20260506125306 | 16 | 207 | 17.7 | 41.8 | 0.00 | 0.00 | 0.00 | 77 | 1010.6 |
| 20260506125205 | 16 | 207 | 17.7 | 41.8 | 0.00 | 0.00 | 0.00 | 77 | 1010.7 |
| 20260506125105 | 16 | 206 | 17.7 | 41.8 | 0.00 | 0.00 | 0.00 | 77 | 1010.8 |
| 20260506125005 | 16 | 206 | 16.1 | 41.8 | 0.00 | 0.00 | 0.00 | 77 | 1010.8 |
| 20260506124905 | 16 | 206 | 16.1 | 41.8 | 0.00 | 0.00 | 0.00 | 77 | 1010.7 |
| 20260506124804 | 16 | 209 | 16.1 | 41.8 | 0.00 | 0.00 | 0.00 | 78 | 1010.7 |
| 20260506124705 | 16 | 206 | 14.5 | 40.2 | 0.00 | 0.00 | 0.00 | 78 | 1010.7 |
| 20260506124612 | 16 | 253 | 11.3 | 38.6 | 0.00 | 0.00 | 0.00 | 78 | 1011.0 |
| 20260506124605 | 16 | 207 | 14.5 | 40.2 | 0.00 | 0.00 | 0.00 | 78 | 1010.7 |
| 20260506124504 | 16 | 209 | 16.1 | 40.2 | 0.00 | 0.00 | 0.00 | 78 | 1010.7 |
| 20260506124404 | 16 | 213 | 14.5 | 40.2 | 0.00 | 0.00 | 0.00 | 78 | 1010.8 |
| 20260506124305 | 16 | 214 | 14.5 | 40.2 | 0.00 | 0.00 | 0.00 | 78 | 1010.6 |
| 20260506124204 | 16 | 216 | 14.5 | 40.2 | 0.00 | 0.00 | 0.00 | 78 | 1010.8 |
| 20260506124105 | 16 | 216 | 16.1 | 40.2 | 0.00 | 0.00 | 0.00 | 79 | 1010.7 |
| 20260506124005 | 16 | 216 | 16.1 | 43.5 | 0.00 | 0.00 | 0.00 | 78 | 1011.0 |
| 20260506123905 | 16 | 217 | 16.1 | 43.5 | 0.00 | 0.00 | 0.00 | 78 | 1010.9 |
| 20260506123805 | 16 | 213 | 14.5 | 43.5 | 0.00 | 0.00 | 0.00 | 78 | 1010.9 |
| 20260506123705 | 16 | 213 | 16.1 | 43.5 | 0.00 | 0.00 | 0.00 | 78 | 1010.9 |
| 20260506123605 | 16 | 215 | 16.1 | 43.5 | 0.00 | 0.00 | 0.00 | 78 | 1011.0 |
| 20260506123505 | 16 | 215 | 16.1 | 43.5 | 0.00 | 0.00 | 0.00 | 78 | 1010.9 |
| 20260506123008 | 16 | 194 | 16.1 | 43.5 | 0.00 | 0.00 | 0.00 | 79 | 1011.2 |
| 20260506122404 | 16 | 208 | 16.1 | 43.5 | 0.00 | 0.00 | 0.00 | 79 | 1010.7 |
| 20260506122306 | 16 | 208 | 16.1 | 38.6 | 0.00 | 0.00 | 0.00 | 79 | 1010.8 |
| 20260506122204 | 16 | 209 | 14.5 | 38.6 | 0.00 | 0.00 | 0.00 | 79 | 1010.8 |
| 20260506122105 | 16 | 210 | 14.5 | 38.6 | 0.00 | 0.00 | 0.00 | 79 | 1010.8 |
| 20260506122004 | 16 | 213 | 14.5 | 38.6 | 0.00 | 0.00 | 0.00 | 80 | 1010.7 |
| 20260506121905 | 16 | 212 | 14.5 | 38.6 | 0.00 | 0.00 | 0.00 | 80 | 1010.8 |
| 20260506121805 | 16 | 215 | 14.5 | 38.6 | 0.00 | 0.00 | 0.00 | 80 | 1010.9 |
| 20260506121705 | 16 | 212 | 14.5 | 38.6 | 0.00 | 0.00 | 0.00 | 80 | 1010.8 |
| 20260506121615 | 15 | 225 | 16.1 | 40.2 | 0.00 | 0.00 | 0.00 | 80 | 1011.0 |
| 20260506121604 | 16 | 214 | 14.5 | 38.6 | 0.00 | 0.00 | 0.00 | 80 | 1010.8 |
| 20260506121505 | 16 | 214 | 12.9 | 38.6 | 0.00 | 0.00 | 0.00 | 80 | 1010.9 |
| 20260506121405 | 16 | 216 | 14.5 | 38.6 | 0.00 | 0.00 | 0.00 | 80 | 1010.9 |
| 20260506121304 | 16 | 216 | 14.5 | 38.6 | 0.00 | 0.00 | 0.00 | 80 | 1010.9 |
| 20260506121204 | 15 | 214 | 14.5 | 38.6 | 0.00 | 0.00 | 0.00 | 80 | 1010.8 |
| 20260506121105 | 15 | 213 | 14.5 | 38.6 | 0.00 | 0.00 | 0.00 | 80 | 1010.8 |
| 20260506121004 | 15 | 214 | 14.5 | 38.6 | 0.00 | 0.00 | 0.00 | 80 | 1010.8 |
| 20260506120905 | 15 | 211 | 14.5 | 38.6 | 0.00 | 0.00 | 0.00 | 80 | 1010.9 |
| 20260506120304 | 15 | 208 | 16.1 | 33.8 | 0.00 | 0.00 | 0.00 | 81 | 1010.7 |
| 20260506120205 | 15 | 209 | 14.5 | 33.8 | 0.00 | 0.00 | 0.00 | 81 | 1010.8 |
| 20260506120105 | 15 | 210 | 16.1 | 33.8 | 0.00 | 0.00 | 0.00 | 81 | 1010.7 |
| 20260506120010 | 15 | 223 | 16.1 | 33.8 | 0.00 | 0.00 | 0.00 | 81 | 1010.9 |
| 20260506120005 | 15 | 209 | 14.5 | 33.8 | 0.00 | 0.00 | 0.00 | 81 | 1010.7 |
| 20260506115905 | 15 | 211 | 14.5 | 33.8 | 0.00 | 0.00 | 0.00 | 81 | 1010.6 |
| 20260506115307 | 15 | 213 | 12.9 | 33.8 | 0.00 | 0.00 | 0.00 | 81 | 1010.7 |
| 20260506115205 | 15 | 214 | 12.9 | 33.8 | 0.00 | 0.00 | 0.00 | 81 | 1010.5 |
| 20260506115105 | 15 | 212 | 12.9 | 33.8 | 0.00 | 0.00 | 0.00 | 81 | 1010.6 |
| 20260506115005 | 15 | 212 | 12.9 | 33.8 | 0.00 | 0.00 | 0.00 | 81 | 1010.6 |
| 20260506114905 | 15 | 210 | 12.9 | 33.8 | 0.00 | 0.00 | 0.00 | 81 | 1010.6 |
| 20260506114805 | 15 | 212 | 14.5 | 38.6 | 0.00 | 0.00 | 0.00 | 82 | 1010.6 |
| 20260506114705 | 15 | 213 | 14.5 | 38.6 | 0.00 | 0.00 | 0.00 | 82 | 1010.7 |
| 20260506114608 | 15 | 246 | 8.0 | 40.2 | 0.00 | 0.00 | 0.00 | 82 | 1010.9 |
| 20260506114604 | 15 | 211 | 14.5 | 38.6 | 0.00 | 0.00 | 0.00 | 82 | 1010.7 |
| 20260506114504 | 15 | 213 | 16.1 | 38.6 | 0.00 | 0.00 | 0.00 | 82 | 1010.7 |
| 20260506114405 | 15 | 211 | 16.1 | 38.6 | 0.00 | 0.00 | 0.00 | 82 | 1010.8 |
| 20260506114305 | 15 | 210 | 16.1 | 38.6 | 0.00 | 0.00 | 0.00 | 82 | 1010.7 |
| 20260506114205 | 15 | 207 | 16.1 | 38.6 | 0.00 | 0.00 | 0.00 | 82 | 1010.6 |
| 20260506114105 | 15 | 207 | 16.1 | 38.6 | 0.00 | 0.00 | 0.00 | 82 | 1010.7 |
| 20260506114005 | 15 | 205 | 16.1 | 38.6 | 0.00 | 0.00 | 0.00 | 82 | 1010.8 |
| 20260506113905 | 15 | 205 | 16.1 | 38.6 | 0.00 | 0.00 | 0.00 | 82 | 1010.7 |
| 20260506113805 | 15 | 201 | 14.5 | 37.0 | 0.00 | 0.00 | 0.00 | 82 | 1010.8 |
| 20260506113705 | 15 | 201 | 14.5 | 37.0 | 0.00 | 0.00 | 0.00 | 82 | 1010.6 |
| 20260506113605 | 15 | 201 | 14.5 | 37.0 | 0.00 | 0.00 | 0.00 | 82 | 1010.7 |
| 20260506113505 | 15 | 198 | 14.5 | 37.0 | 0.00 | 0.00 | 0.00 | 82 | 1010.7 |
| 20260506113404 | 15 | 198 | 14.5 | 37.0 | 0.00 | 0.00 | 0.00 | 82 | 1010.7 |
| 20260506113305 | 15 | 196 | 14.5 | 41.8 | 0.00 | 0.00 | 0.00 | 82 | 1010.8 |
| 20260506113205 | 15 | 196 | 14.5 | 41.8 | 0.00 | 0.00 | 0.00 | 82 | 1010.8 |
| 20260506113120 | 14 | 176 | 12.9 | 41.8 | 0.00 | 0.00 | 0.00 | 82 | 1011.0 |
| 20260506113105 | 15 | 197 | 14.5 | 41.8 | 0.00 | 0.00 | 0.00 | 82 | 1010.8 |
| 20260506113005 | 15 | 197 | 14.5 | 41.8 | 0.00 | 0.00 | 0.00 | 82 | 1010.7 |
| 20260506112904 | 15 | 201 | 14.5 | 41.8 | 0.00 | 0.00 | 0.00 | 82 | 1010.7 |
| 20260506112805 | 15 | 203 | 14.5 | 41.8 | 0.00 | 0.00 | 0.00 | 82 | 1010.8 |
| 20260506112705 | 15 | 203 | 14.5 | 41.8 | 0.00 | 0.00 | 0.00 | 82 | 1010.7 |
| 20260506112605 | 15 | 202 | 16.1 | 41.8 | 0.00 | 0.00 | 0.00 | 82 | 1010.7 |
| 20260506112505 | 15 | 202 | 16.1 | 41.8 | 0.00 | 0.00 | 0.00 | 82 | 1010.8 |
| 20260506112404 | 15 | 202 | 16.1 | 41.8 | 0.00 | 0.00 | 0.00 | 82 | 1010.8 |
| 20260506112306 | 15 | 203 | 16.1 | 35.4 | 0.00 | 0.00 | 0.00 | 82 | 1010.8 |
| 20260506112205 | 15 | 206 | 16.1 | 35.4 | 0.00 | 0.00 | 0.00 | 82 | 1010.7 |
| 20260506112104 | 15 | 207 | 16.1 | 35.4 | 0.00 | 0.00 | 0.00 | 82 | 1010.9 |
| 20260506112005 | 15 | 206 | 14.5 | 35.4 | 0.00 | 0.00 | 0.00 | 82 | 1010.7 |
| 20260506111904 | 14 | 204 | 14.5 | 35.4 | 0.00 | 0.00 | 0.00 | 82 | 1010.7 |
| 20260506111805 | 14 | 203 | 14.5 | 35.4 | 0.00 | 0.00 | 0.00 | 82 | 1010.8 |
| 20260506111705 | 14 | 202 | 14.5 | 35.4 | 0.00 | 0.00 | 0.00 | 82 | 1010.6 |
| 20260506111607 | 14 | 196 | 19.3 | 35.4 | 0.00 | 0.00 | 0.00 | 82 | 1010.9 |
| 20260506111604 | 14 | 202 | 12.9 | 35.4 | 0.00 | 0.00 | 0.00 | 82 | 1010.7 |
| 20260506111505 | 14 | 203 | 12.9 | 35.4 | 0.00 | 0.00 | 0.00 | 83 | 1010.8 |
| 20260506111405 | 14 | 202 | 11.3 | 33.8 | 0.00 | 0.00 | 0.00 | 83 | 1010.7 |
| 20260506111304 | 14 | 202 | 11.3 | 30.6 | 0.00 | 0.00 | 0.00 | 83 | 1010.7 |
| 20260506111205 | 14 | 200 | 9.7 | 27.4 | 0.00 | 0.00 | 0.00 | 83 | 1010.7 |
| 20260506111105 | 14 | 199 | 9.7 | 27.4 | 0.00 | 0.00 | 0.00 | 83 | 1010.7 |
| 20260506111004 | 14 | 199 | 9.7 | 27.4 | 0.00 | 0.00 | 0.00 | 83 | 1010.8 |
| 20260506110905 | 14 | 196 | 9.7 | 27.4 | 0.00 | 0.00 | 0.00 | 83 | 1010.6 |
| 20260506110805 | 14 | 196 | 9.7 | 27.4 | 0.00 | 0.00 | 0.00 | 83 | 1010.7 |
| 20260506110704 | 14 | 197 | 11.3 | 27.4 | 0.00 | 0.00 | 0.00 | 83 | 1010.8 |
| 20260506110605 | 14 | 196 | 11.3 | 27.4 | 0.00 | 0.00 | 0.00 | 83 | 1010.8 |
| 20260506110505 | 14 | 196 | 11.3 | 27.4 | 0.00 | 0.00 | 0.00 | 83 | 1010.7 |
| 20260506110404 | 14 | 196 | 11.3 | 27.4 | 0.00 | 0.00 | 0.00 | 83 | 1010.7 |
| 20260506110305 | 14 | 196 | 12.9 | 27.4 | 0.00 | 0.00 | 0.00 | 83 | 1010.7 |
| 20260506110204 | 14 | 196 | 12.9 | 27.4 | 0.00 | 0.00 | 0.00 | 83 | 1010.8 |
| 20260506110119 | 14 | 219 | 6.4 | 30.6 | 0.00 | 0.00 | 0.00 | 83 | 1011.0 |
| 20260506110105 | 14 | 198 | 12.9 | 27.4 | 0.00 | 0.00 | 0.00 | 83 | 1010.8 |
| 20260506110005 | 14 | 198 | 14.5 | 27.4 | 0.00 | 0.00 | 0.00 | 83 | 1010.7 |
| 20260506105405 | 14 | 205 | 12.9 | 37.0 | 0.00 | 0.00 | 0.00 | 84 | 1010.6 |
| 20260506105305 | 14 | 205 | 12.9 | 37.0 | 0.00 | 0.00 | 0.00 | 84 | 1010.6 |
| 20260506105204 | 14 | 205 | 12.9 | 37.0 | 0.00 | 0.00 | 0.00 | 84 | 1010.5 |
| 20260506105105 | 14 | 201 | 11.3 | 37.0 | 0.00 | 0.00 | 0.00 | 84 | 1010.5 |
| 20260506105004 | 14 | 202 | 11.3 | 37.0 | 0.00 | 0.00 | 0.00 | 84 | 1010.6 |
| 20260506104905 | 14 | 199 | 11.3 | 37.0 | 0.00 | 0.00 | 0.00 | 84 | 1010.6 |
| 20260506104805 | 14 | 199 | 11.3 | 37.0 | 0.00 | 0.00 | 0.00 | 84 | 1010.6 |
| 20260506104704 | 14 | 200 | 11.3 | 37.0 | 0.00 | 0.00 | 0.00 | 84 | 1010.6 |
| 20260506104610 | 13 | 223 | 12.9 | 37.0 | 0.00 | 0.00 | 0.00 | 84 | 1010.8 |
| 20260506104605 | 14 | 199 | 11.3 | 37.0 | 0.00 | 0.00 | 0.00 | 84 | 1010.6 |
| 20260506104504 | 14 | 201 | 9.7 | 37.0 | 0.00 | 0.00 | 0.00 | 84 | 1010.6 |
| 20260506104405 | 14 | 200 | 11.3 | 24.1 | 0.00 | 0.00 | 0.00 | 84 | 1010.6 |
| 20260506104305 | 14 | 199 | 11.3 | 29.0 | 0.00 | 0.00 | 0.00 | 84 | 1010.7 |
| 20260506104205 | 14 | 200 | 11.3 | 29.0 | 0.00 | 0.00 | 0.00 | 84 | 1010.7 |
| 20260506104104 | 14 | 200 | 11.3 | 29.0 | 0.00 | 0.00 | 0.00 | 84 | 1010.7 |
| 20260506104005 | 14 | 199 | 12.9 | 29.0 | 0.00 | 0.00 | 0.00 | 84 | 1010.6 |
| 20260506103905 | 14 | 198 | 12.9 | 29.0 | 0.00 | 0.00 | 0.00 | 84 | 1010.6 |
| 20260506103204 | 14 | 194 | 14.5 | 43.5 | 0.00 | 0.00 | 0.00 | 84 | 1010.7 |
| 20260506103117 | 13 | 117 | 12.9 | 38.6 | 0.00 | 0.00 | 0.00 | 84 | 1010.9 |
| 20260506103105 | 13 | 194 | 14.5 | 43.5 | 0.00 | 0.00 | 0.00 | 84 | 1010.8 |
| 20260506103004 | 13 | 193 | 14.5 | 43.5 | 0.00 | 0.00 | 0.00 | 84 | 1010.7 |
| 20260506102904 | 13 | 195 | 12.9 | 43.5 | 0.00 | 0.00 | 0.00 | 84 | 1010.8 |
| 20260506102805 | 13 | 194 | 12.9 | 43.5 | 0.00 | 0.00 | 0.00 | 84 | 1010.8 |
| 20260506102704 | 13 | 197 | 12.9 | 43.5 | 0.00 | 0.00 | 0.00 | 84 | 1010.8 |
| 20260506102605 | 13 | 197 | 12.9 | 43.5 | 0.00 | 0.00 | 0.00 | 84 | 1010.8 |
| 20260506102504 | 13 | 199 | 12.9 | 43.5 | 0.00 | 0.00 | 0.00 | 84 | 1010.8 |
| 20260506102405 | 13 | 201 | 12.9 | 43.5 | 0.00 | 0.00 | 0.00 | 84 | 1010.7 |
| 20260506102306 | 13 | 201 | 11.3 | 30.6 | 0.00 | 0.00 | 0.00 | 84 | 1010.7 |
| 20260506102204 | 13 | 199 | 11.3 | 30.6 | 0.00 | 0.00 | 0.00 | 84 | 1010.7 |
| 20260506102105 | 13 | 200 | 12.9 | 33.8 | 0.00 | 0.00 | 0.00 | 84 | 1010.8 |
| 20260506102005 | 14 | 201 | 12.9 | 35.4 | 0.00 | 0.00 | 0.00 | 84 | 1010.8 |
| 20260506101904 | 13 | 201 | 12.9 | 35.4 | 0.00 | 0.00 | 0.00 | 84 | 1010.7 |
| 20260506101805 | 13 | 201 | 12.9 | 35.4 | 0.00 | 0.00 | 0.00 | 84 | 1010.6 |
| 20260506101704 | 13 | 201 | 12.9 | 35.4 | 0.00 | 0.00 | 0.00 | 84 | 1010.8 |
| 20260506101637 | 13 | 176 | 8.0 | 33.8 | 0.00 | 0.00 | 0.00 | 84 | 1010.9 |
| 20260506101605 | 13 | 201 | 12.9 | 35.4 | 0.00 | 0.00 | 0.00 | 84 | 1010.7 |
| 20260506101505 | 13 | 201 | 12.9 | 35.4 | 0.00 | 0.00 | 0.00 | 84 | 1010.7 |
| 20260506101404 | 13 | 199 | 12.9 | 35.4 | 0.00 | 0.00 | 0.00 | 84 | 1010.6 |
| 20260506101305 | 13 | 199 | 14.5 | 35.4 | 0.00 | 0.00 | 0.00 | 84 | 1010.7 |
| 20260506101205 | 13 | 199 | 14.5 | 35.4 | 0.00 | 0.00 | 0.00 | 84 | 1010.7 |
| 20260506101104 | 13 | 199 | 14.5 | 35.4 | 0.00 | 0.00 | 0.00 | 84 | 1010.7 |
| 20260506101005 | 13 | 199 | 12.9 | 33.8 | 0.00 | 0.00 | 0.00 | 84 | 1010.7 |
| 20260506100904 | 14 | 198 | 12.9 | 33.8 | 0.00 | 0.00 | 0.00 | 84 | 1010.6 |
| 20260506100804 | 13 | 197 | 12.9 | 29.0 | 0.00 | 0.00 | 0.00 | 83 | 1010.7 |
| 20260506100705 | 14 | 195 | 12.9 | 29.0 | 0.00 | 0.00 | 0.00 | 84 | 1010.4 |
| 20260506100604 | 14 | 193 | 12.9 | 29.0 | 0.00 | 0.00 | 0.00 | 83 | 1010.6 |
| 20260506100504 | 14 | 192 | 12.9 | 29.0 | 0.00 | 0.00 | 0.00 | 83 | 1010.6 |
| 20260506100404 | 13 | 193 | 12.9 | 29.0 | 0.00 | 0.00 | 0.00 | 83 | 1010.5 |
| 20260506100304 | 14 | 193 | 12.9 | 29.0 | 0.00 | 0.00 | 0.00 | 84 | 1010.6 |
| 20260506100205 | 14 | 192 | 12.9 | 27.4 | 0.00 | 0.00 | 0.00 | 84 | 1010.6 |
| 20260506100117 | 13 | 183 | 11.3 | 27.4 | 0.00 | 0.00 | 0.00 | 84 | 1010.8 |
| 20260506095604 | 14 | 195 | 14.5 | 38.6 | 0.00 | 0.00 | 0.00 | 84 | 1010.6 |
| 20260506095505 | 14 | 196 | 14.5 | 38.6 | 0.00 | 0.00 | 0.00 | 84 | 1010.7 |
| 20260506095404 | 14 | 196 | 14.5 | 38.6 | 0.00 | 0.00 | 0.00 | 84 | 1010.6 |
| 20260506095306 | 14 | 197 | 16.1 | 38.6 | 0.00 | 0.00 | 0.00 | 84 | 1010.6 |
| 20260506095205 | 14 | 196 | 14.5 | 38.6 | 0.00 | 0.00 | 0.00 | 84 | 1010.5 |
| 20260506095105 | 14 | 196 | 16.1 | 38.6 | 0.00 | 0.00 | 0.00 | 84 | 1010.6 |
| 20260506095004 | 14 | 194 | 16.1 | 38.6 | 0.00 | 0.00 | 0.00 | 84 | 1010.6 |
| 20260506094905 | 14 | 194 | 14.5 | 38.6 | 0.00 | 0.00 | 0.00 | 84 | 1010.6 |
| 20260506094804 | 14 | 196 | 16.1 | 38.6 | 0.00 | 0.00 | 0.00 | 84 | 1010.5 |
| 20260506094705 | 14 | 198 | 16.1 | 38.6 | 0.00 | 0.00 | 0.00 | 84 | 1010.5 |
| 20260506094608 | 13 | 201 | 17.7 | 38.6 | 0.00 | 0.00 | 0.00 | 84 | 1010.7 |
| 20260506094605 | 14 | 196 | 16.1 | 38.6 | 0.00 | 0.00 | 0.00 | 84 | 1010.5 |
| 20260506094504 | 14 | 196 | 16.1 | 38.6 | 0.00 | 0.00 | 0.00 | 84 | 1010.6 |
| 20260506094404 | 14 | 197 | 14.5 | 38.6 | 0.00 | 0.00 | 0.00 | 84 | 1010.5 |
| 20260506094305 | 14 | 195 | 14.5 | 38.6 | 0.00 | 0.00 | 0.00 | 84 | 1010.5 |
| 20260506094205 | 14 | 195 | 14.5 | 38.6 | 0.00 | 0.00 | 0.00 | 84 | 1010.6 |
| 20260506094105 | 14 | 197 | 14.5 | 38.6 | 0.00 | 0.00 | 0.00 | 84 | 1010.5 |
| 20260506094004 | 14 | 198 | 14.5 | 38.6 | 0.00 | 0.00 | 0.00 | 84 | 1010.7 |
| 20260506093904 | 14 | 199 | 14.5 | 41.8 | 0.00 | 0.00 | 0.00 | 84 | 1010.5 |
| 20260506093805 | 14 | 198 | 14.5 | 41.8 | 0.00 | 0.00 | 0.00 | 84 | 1010.5 |
| 20260506093704 | 14 | 196 | 14.5 | 41.8 | 0.00 | 0.00 | 0.00 | 84 | 1010.5 |
| 20260506093605 | 14 | 197 | 14.5 | 41.8 | 0.00 | 0.00 | 0.00 | 84 | 1010.5 |
| 20260506093504 | 14 | 197 | 14.5 | 41.8 | 0.00 | 0.00 | 0.00 | 83 | 1010.6 |
| 20260506093405 | 14 | 196 | 14.5 | 41.8 | 0.00 | 0.00 | 0.00 | 84 | 1010.5 |
| 20260506093305 | 14 | 197 | 14.5 | 41.8 | 0.00 | 0.00 | 0.00 | 83 | 1010.5 |
| 20260506093204 | 14 | 199 | 14.5 | 41.8 | 0.00 | 0.00 | 0.00 | 84 | 1010.6 |
| 20260506093114 | 13 | 183 | 16.1 | 37.0 | 0.00 | 0.00 | 0.00 | 83 | 1010.7 |
| 20260506093105 | 14 | 198 | 14.5 | 41.8 | 0.00 | 0.00 | 0.00 | 83 | 1010.5 |
| 20260506093005 | 14 | 199 | 12.9 | 41.8 | 0.00 | 0.00 | 0.00 | 83 | 1010.5 |
| 20260506092904 | 14 | 200 | 12.9 | 32.2 | 0.00 | 0.00 | 0.00 | 83 | 1010.6 |
| 20260506092805 | 14 | 199 | 14.5 | 32.2 | 0.00 | 0.00 | 0.00 | 83 | 1010.6 |
| 20260506092704 | 14 | 197 | 12.9 | 32.2 | 0.00 | 0.00 | 0.00 | 83 | 1010.6 |
| 20260506092605 | 14 | 197 | 12.9 | 32.2 | 0.00 | 0.00 | 0.00 | 83 | 1010.7 |
| 20260506092504 | 14 | 198 | 12.9 | 32.2 | 0.00 | 0.00 | 0.00 | 83 | 1010.7 |
| 20260506092405 | 14 | 199 | 12.9 | 32.2 | 0.00 | 0.00 | 0.00 | 83 | 1010.6 |
| 20260506092306 | 14 | 200 | 12.9 | 32.2 | 0.00 | 0.00 | 0.00 | 83 | 1010.6 |
| 20260506092204 | 14 | 200 | 12.9 | 32.2 | 0.00 | 0.00 | 0.00 | 83 | 1010.6 |
| 20260506092105 | 14 | 200 | 14.5 | 32.2 | 0.00 | 0.00 | 0.00 | 83 | 1010.7 |
| 20260506092004 | 14 | 199 | 14.5 | 37.0 | 0.00 | 0.00 | 0.00 | 83 | 1010.7 |
| 20260506091904 | 14 | 197 | 14.5 | 37.0 | 0.00 | 0.00 | 0.00 | 83 | 1010.7 |
| 20260506091805 | 14 | 199 | 14.5 | 37.0 | 0.00 | 0.00 | 0.00 | 83 | 1010.7 |
| 20260506091704 | 14 | 200 | 14.5 | 37.0 | 0.00 | 0.00 | 0.00 | 83 | 1010.8 |
| 20260506091605 | 14 | 199 | 14.5 | 37.0 | 0.00 | 0.00 | 0.00 | 83 | 1010.7 |
| 20260506091506 | 13 | 166 | 12.9 | 38.6 | 0.00 | 0.00 | 0.00 | 83 | 1011.0 |
| 20260506091504 | 14 | 199 | 14.5 | 37.0 | 0.00 | 0.00 | 0.00 | 83 | 1010.7 |
| 20260506091405 | 14 | 199 | 16.1 | 37.0 | 0.00 | 0.00 | 0.00 | 83 | 1010.7 |
| 20260506091304 | 14 | 199 | 14.5 | 37.0 | 0.00 | 0.00 | 0.00 | 83 | 1010.8 |
| 20260506091205 | 14 | 198 | 14.5 | 37.0 | 0.00 | 0.00 | 0.00 | 83 | 1010.6 |
| 20260506091104 | 14 | 200 | 12.9 | 37.0 | 0.00 | 0.00 | 0.00 | 83 | 1010.7 |
| 20260506091004 | 14 | 201 | 12.9 | 32.2 | 0.00 | 0.00 | 0.00 | 83 | 1010.7 |
| 20260506090905 | 14 | 201 | 12.9 | 32.2 | 0.00 | 0.00 | 0.00 | 83 | 1010.8 |
| 20260506090804 | 14 | 201 | 12.9 | 32.2 | 0.00 | 0.00 | 0.00 | 83 | 1010.7 |
| 20260506090705 | 14 | 201 | 12.9 | 32.2 | 0.00 | 0.00 | 0.00 | 83 | 1010.7 |
| 20260506090112 | 14 | 196 | 8.0 | 35.4 | 0.00 | 0.00 | 0.00 | 83 | 1010.9 |
| 20260506090005 | 14 | 198 | 14.5 | 37.0 | 0.00 | 0.00 | 0.00 | 83 | 1010.7 |
| 20260506085904 | 14 | 200 | 14.5 | 37.0 | 0.00 | 0.00 | 0.00 | 83 | 1010.8 |
| 20260506085805 | 14 | 199 | 12.9 | 37.0 | 0.00 | 0.00 | 0.00 | 83 | 1010.7 |
| 20260506085704 | 14 | 199 | 12.9 | 37.0 | 0.00 | 0.00 | 0.00 | 83 | 1010.7 |
| 20260506085605 | 14 | 201 | 14.5 | 37.0 | 0.00 | 0.00 | 0.00 | 83 | 1010.8 |
| 20260506085504 | 14 | 201 | 12.9 | 37.0 | 0.00 | 0.00 | 0.00 | 83 | 1010.7 |
| 20260506085405 | 14 | 201 | 12.9 | 37.0 | 0.00 | 0.00 | 0.00 | 83 | 1010.8 |
| 20260506085306 | 14 | 200 | 12.9 | 37.0 | 0.00 | 0.00 | 0.00 | 83 | 1010.7 |
| 20260506085204 | 14 | 200 | 12.9 | 27.4 | 0.00 | 0.00 | 0.00 | 83 | 1010.8 |
| 20260506085105 | 14 | 198 | 12.9 | 27.4 | 0.00 | 0.00 | 0.00 | 83 | 1010.9 |
| 20260506085004 | 14 | 198 | 12.9 | 27.4 | 0.00 | 0.00 | 0.00 | 83 | 1010.9 |
| 20260506084904 | 14 | 197 | 12.9 | 27.4 | 0.00 | 0.00 | 0.00 | 83 | 1010.9 |
| 20260506084805 | 14 | 196 | 12.9 | 27.4 | 0.00 | 0.00 | 0.00 | 83 | 1010.9 |
| 20260506084704 | 14 | 197 | 12.9 | 27.4 | 0.00 | 0.00 | 0.00 | 83 | 1010.9 |
| 20260506084634 | 14 | 196 | 9.7 | 29.0 | 0.00 | 0.00 | 0.00 | 83 | 1011.2 |
| 20260506084605 | 14 | 196 | 12.9 | 27.4 | 0.00 | 0.00 | 0.00 | 83 | 1011.0 |
| 20260506084505 | 14 | 195 | 12.9 | 27.4 | 0.00 | 0.00 | 0.00 | 83 | 1010.9 |
| 20260506084404 | 14 | 196 | 12.9 | 27.4 | 0.00 | 0.00 | 0.00 | 83 | 1011.0 |
| 20260506084305 | 14 | 194 | 12.9 | 27.4 | 0.00 | 0.00 | 0.00 | 83 | 1010.9 |
| 20260506084204 | 14 | 193 | 12.9 | 27.4 | 0.00 | 0.00 | 0.00 | 82 | 1010.9 |
| 20260506084105 | 14 | 196 | 14.5 | 27.4 | 0.00 | 0.00 | 0.00 | 82 | 1010.9 |
| 20260506084004 | 14 | 197 | 14.5 | 27.4 | 0.00 | 0.00 | 0.00 | 82 | 1010.9 |
| 20260506083905 | 14 | 196 | 14.5 | 32.2 | 0.00 | 0.00 | 0.00 | 82 | 1010.9 |
| 20260506083804 | 14 | 199 | 14.5 | 38.6 | 0.00 | 0.00 | 0.00 | 82 | 1010.8 |
| 20260506083704 | 14 | 198 | 14.5 | 38.6 | 0.00 | 0.00 | 0.00 | 82 | 1011.0 |
| 20260506083605 | 14 | 201 | 14.5 | 38.6 | 0.00 | 0.00 | 0.00 | 82 | 1011.0 |
| 20260506083504 | 14 | 200 | 14.5 | 38.6 | 0.00 | 0.00 | 0.00 | 82 | 1011.0 |
| 20260506083405 | 14 | 202 | 14.5 | 38.6 | 0.00 | 0.00 | 0.00 | 82 | 1011.1 |
| 20260506083305 | 14 | 201 | 14.5 | 38.6 | 0.00 | 0.00 | 0.00 | 82 | 1011.1 |
| 20260506083204 | 14 | 202 | 14.5 | 38.6 | 0.00 | 0.00 | 0.00 | 82 | 1011.1 |
| 20260506083116 | 14 | 210 | 14.5 | 40.2 | 0.00 | 0.00 | 0.00 | 82 | 1011.3 |
| 20260506083105 | 14 | 198 | 14.5 | 38.6 | 0.00 | 0.00 | 0.00 | 82 | 1011.1 |
| 20260506083005 | 14 | 196 | 12.9 | 38.6 | 0.00 | 0.00 | 0.00 | 82 | 1011.1 |
| 20260506082904 | 14 | 196 | 12.9 | 38.6 | 0.00 | 0.00 | 0.00 | 82 | 1011.0 |
| 20260506082805 | 14 | 194 | 12.9 | 30.6 | 0.00 | 0.00 | 0.00 | 82 | 1011.0 |
| 20260506082705 | 14 | 193 | 11.3 | 30.6 | 0.00 | 0.00 | 0.00 | 82 | 1011.0 |
| 20260506082604 | 14 | 189 | 12.9 | 30.6 | 0.00 | 0.00 | 0.00 | 82 | 1011.1 |
| 20260506082505 | 14 | 189 | 12.9 | 35.4 | 0.00 | 0.00 | 0.00 | 82 | 1011.0 |
| 20260506082405 | 14 | 188 | 12.9 | 35.4 | 0.00 | 0.00 | 0.00 | 82 | 1011.1 |
| 20260506082305 | 14 | 188 | 12.9 | 35.4 | 0.00 | 0.00 | 0.00 | 82 | 1011.0 |
| 20260506082205 | 14 | 189 | 14.5 | 35.4 | 0.00 | 0.00 | 0.00 | 82 | 1011.1 |
| 20260506082105 | 14 | 190 | 12.9 | 35.4 | 0.00 | 0.00 | 0.00 | 82 | 1011.1 |
| 20260506082004 | 14 | 192 | 12.9 | 35.4 | 0.00 | 0.00 | 0.00 | 82 | 1011.1 |
| 20260506081905 | 14 | 191 | 14.5 | 35.4 | 0.00 | 0.00 | 0.00 | 82 | 1011.0 |
| 20260506081804 | 14 | 194 | 14.5 | 35.4 | 0.00 | 0.00 | 0.00 | 82 | 1011.1 |
| 20260506081705 | 14 | 195 | 14.5 | 35.4 | 0.00 | 0.00 | 0.00 | 82 | 1011.0 |
| 20260506081619 | 14 | 187 | 16.1 | 35.4 | 0.00 | 0.00 | 0.00 | 82 | 1011.2 |
| 20260506081605 | 14 | 196 | 14.5 | 35.4 | 0.00 | 0.00 | 0.00 | 82 | 1011.1 |
| 20260506081504 | 14 | 198 | 12.9 | 35.4 | 0.00 | 0.00 | 0.00 | 82 | 1011.0 |
| 20260506081405 | 14 | 198 | 12.9 | 35.4 | 0.00 | 0.00 | 0.00 | 82 | 1011.0 |
| 20260506081304 | 14 | 199 | 12.9 | 35.4 | 0.00 | 0.00 | 0.00 | 82 | 1011.0 |
| 20260506081204 | 14 | 197 | 12.9 | 29.0 | 0.00 | 0.00 | 0.00 | 81 | 1011.0 |
| 20260506081105 | 14 | 199 | 12.9 | 29.0 | 0.00 | 0.00 | 0.00 | 81 | 1011.0 |
| 20260506081004 | 14 | 198 | 12.9 | 29.0 | 0.00 | 0.00 | 0.00 | 81 | 1011.0 |
| 20260506080904 | 14 | 200 | 12.9 | 29.0 | 0.00 | 0.00 | 0.00 | 81 | 1010.9 |
| 20260506080805 | 14 | 196 | 12.9 | 29.0 | 0.00 | 0.00 | 0.00 | 81 | 1010.9 |
| 20260506080704 | 14 | 199 | 12.9 | 29.0 | 0.00 | 0.00 | 0.00 | 81 | 1011.0 |
| 20260506080604 | 14 | 200 | 11.3 | 29.0 | 0.00 | 0.00 | 0.00 | 81 | 1010.9 |
| 20260506080505 | 14 | 199 | 11.3 | 35.4 | 0.00 | 0.00 | 0.00 | 81 | 1011.0 |
| 20260506080404 | 14 | 198 | 12.9 | 35.4 | 0.00 | 0.00 | 0.00 | 81 | 1011.1 |
| 20260506080305 | 14 | 197 | 12.9 | 35.4 | 0.00 | 0.00 | 0.00 | 81 | 1011.1 |
| 20260506080205 | 14 | 197 | 11.3 | 35.4 | 0.00 | 0.00 | 0.00 | 81 | 1011.0 |
| 20260506080115 | 14 | 200 | 11.3 | 35.4 | 0.00 | 0.00 | 0.00 | 81 | 1011.3 |
| 20260506080104 | 14 | 198 | 12.9 | 35.4 | 0.00 | 0.00 | 0.00 | 81 | 1011.0 |
| 20260506073505 | 15 | 200 | 11.3 | 27.4 | 0.00 | 0.00 | 0.00 | 80 | 1011.3 |
| 20260506073405 | 15 | 202 | 11.3 | 35.4 | 0.00 | 0.00 | 0.00 | 80 | 1011.3 |
| 20260506073304 | 15 | 201 | 12.9 | 35.4 | 0.00 | 0.00 | 0.00 | 80 | 1011.3 |
| 20260506073205 | 15 | 201 | 12.9 | 35.4 | 0.00 | 0.00 | 0.00 | 80 | 1011.3 |
| 20260506073112 | 14 | 242 | 12.9 | 32.2 | 0.00 | 0.00 | 0.00 | 80 | 1011.5 |
| 20260506073104 | 15 | 203 | 11.3 | 35.4 | 0.00 | 0.00 | 0.00 | 80 | 1011.3 |
| 20260506073004 | 15 | 206 | 11.3 | 35.4 | 0.00 | 0.00 | 0.00 | 80 | 1011.2 |
| 20260506072905 | 15 | 207 | 11.3 | 35.4 | 0.00 | 0.00 | 0.00 | 80 | 1011.3 |
| 20260506072804 | 15 | 211 | 11.3 | 35.4 | 0.00 | 0.00 | 0.00 | 80 | 1011.4 |
| 20260506072705 | 15 | 211 | 11.3 | 35.4 | 0.00 | 0.00 | 0.00 | 80 | 1011.3 |
| 20260506072604 | 15 | 209 | 11.3 | 35.4 | 0.00 | 0.00 | 0.00 | 80 | 1011.3 |
| 20260506072505 | 15 | 210 | 11.3 | 35.4 | 0.00 | 0.00 | 0.00 | 80 | 1011.3 |
| 20260506072404 | 15 | 207 | 11.3 | 32.2 | 0.00 | 0.00 | 0.00 | 80 | 1011.3 |
| 20260506072306 | 15 | 207 | 11.3 | 32.2 | 0.00 | 0.00 | 0.00 | 80 | 1011.3 |
| 20260506072204 | 15 | 205 | 11.3 | 32.2 | 0.00 | 0.00 | 0.00 | 80 | 1011.3 |
| 20260506072104 | 15 | 204 | 11.3 | 32.2 | 0.00 | 0.00 | 0.00 | 80 | 1011.3 |
| 20260506072005 | 15 | 205 | 12.9 | 37.0 | 0.00 | 0.00 | 0.00 | 80 | 1011.3 |
| 20260506071904 | 15 | 205 | 12.9 | 37.0 | 0.00 | 0.00 | 0.00 | 80 | 1011.4 |
| 20260506071805 | 15 | 203 | 14.5 | 37.0 | 0.00 | 0.00 | 0.00 | 80 | 1011.3 |
| 20260506071705 | 15 | 204 | 12.9 | 37.0 | 0.00 | 0.00 | 0.00 | 80 | 1011.3 |
| 20260506071620 | 14 | 114 | 11.3 | 33.8 | 0.00 | 0.00 | 0.00 | 80 | 1011.4 |
| 20260506071604 | 15 | 205 | 14.5 | 37.0 | 0.00 | 0.00 | 0.00 | 80 | 1011.3 |
| 20260506071505 | 15 | 204 | 14.5 | 37.0 | 0.00 | 0.00 | 0.00 | 80 | 1011.3 |
| 20260506071405 | 15 | 203 | 12.9 | 37.0 | 0.00 | 0.00 | 0.00 | 80 | 1011.2 |
| 20260506071304 | 15 | 204 | 14.5 | 37.0 | 0.00 | 0.00 | 0.00 | 80 | 1011.3 |
| 20260506071205 | 15 | 204 | 14.5 | 37.0 | 0.00 | 0.00 | 0.00 | 80 | 1011.3 |
| 20260506071105 | 15 | 206 | 14.5 | 37.0 | 0.00 | 0.00 | 0.00 | 80 | 1011.3 |
| 20260506071004 | 15 | 204 | 12.9 | 33.8 | 0.00 | 0.00 | 0.00 | 80 | 1011.2 |
| 20260506070905 | 15 | 204 | 14.5 | 33.8 | 0.00 | 0.00 | 0.00 | 80 | 1011.2 |
| 20260506070804 | 15 | 202 | 12.9 | 37.0 | 0.00 | 0.00 | 0.00 | 80 | 1011.2 |
| 20260506070704 | 15 | 200 | 14.5 | 37.0 | 0.00 | 0.00 | 0.00 | 80 | 1011.2 |
| 20260506070605 | 15 | 200 | 14.5 | 37.0 | 0.00 | 0.00 | 0.00 | 80 | 1011.2 |
| 20260506070505 | 15 | 198 | 14.5 | 37.0 | 0.00 | 0.00 | 0.00 | 80 | 1011.2 |
| 20260506070404 | 15 | 203 | 14.5 | 37.0 | 0.00 | 0.00 | 0.00 | 80 | 1011.2 |
| 20260506070305 | 15 | 202 | 12.9 | 37.0 | 0.00 | 0.00 | 0.00 | 80 | 1011.3 |
| 20260506070204 | 15 | 204 | 12.9 | 37.0 | 0.00 | 0.00 | 0.00 | 80 | 1011.2 |
| 20260506070112 | 14 | 278 | 11.3 | 37.0 | 0.00 | 0.00 | 0.00 | 80 | 1011.4 |
| 20260506070104 | 15 | 202 | 12.9 | 37.0 | 0.00 | 0.00 | 0.00 | 80 | 1011.2 |
| 20260506062204 | 15 | 204 | 16.1 | 41.8 | 0.00 | 0.00 | 0.00 | 80 | 1010.9 |
| 20260506062105 | 15 | 204 | 16.1 | 41.8 | 0.00 | 0.00 | 0.00 | 80 | 1011.0 |
| 20260506062005 | 15 | 202 | 16.1 | 41.8 | 0.00 | 0.00 | 0.00 | 79 | 1011.1 |
| 20260506061904 | 15 | 201 | 16.1 | 41.8 | 0.00 | 0.00 | 0.00 | 80 | 1011.1 |
| 20260506061805 | 15 | 200 | 14.5 | 41.8 | 0.00 | 0.00 | 0.00 | 79 | 1011.0 |
| 20260506061704 | 15 | 200 | 14.5 | 41.8 | 0.00 | 0.00 | 0.00 | 79 | 1011.1 |
| 20260506061620 | 15 | 177 | 19.3 | 41.8 | 0.00 | 0.00 | 0.00 | 79 | 1011.2 |
| 20260506061604 | 15 | 202 | 14.5 | 41.8 | 0.00 | 0.00 | 0.00 | 79 | 1011.1 |
| 20260506061505 | 15 | 199 | 12.9 | 41.8 | 0.00 | 0.00 | 0.00 | 79 | 1011.1 |
| 20260506061404 | 15 | 200 | 12.9 | 40.2 | 0.00 | 0.00 | 0.00 | 79 | 1011.2 |
| 20260506061305 | 15 | 203 | 12.9 | 32.2 | 0.00 | 0.00 | 0.00 | 79 | 1011.1 |
| 20260506061205 | 15 | 202 | 12.9 | 30.6 | 0.00 | 0.00 | 0.00 | 79 | 1011.1 |
| 20260506061104 | 15 | 203 | 12.9 | 30.6 | 0.00 | 0.00 | 0.00 | 79 | 1011.2 |
| 20260506061005 | 15 | 205 | 12.9 | 30.6 | 0.00 | 0.00 | 0.00 | 79 | 1011.3 |
| 20260506060904 | 15 | 206 | 12.9 | 27.4 | 0.00 | 0.00 | 0.00 | 79 | 1011.0 |
| 20260506060804 | 15 | 207 | 12.9 | 40.2 | 0.00 | 0.00 | 0.00 | 79 | 1011.1 |
| 20260506060705 | 15 | 205 | 12.9 | 40.2 | 0.00 | 0.00 | 0.00 | 79 | 1011.2 |
| 20260506060604 | 15 | 205 | 12.9 | 40.2 | 0.00 | 0.00 | 0.00 | 79 | 1011.2 |
| 20260506060504 | 15 | 207 | 12.9 | 40.2 | 0.00 | 0.00 | 0.00 | 79 | 1011.2 |
| 20260506060405 | 15 | 205 | 12.9 | 40.2 | 0.00 | 0.00 | 0.00 | 79 | 1011.3 |
| 20260506060304 | 15 | 203 | 12.9 | 40.2 | 0.00 | 0.00 | 0.00 | 79 | 1011.2 |
| 20260506060205 | 15 | 202 | 12.9 | 40.2 | 0.00 | 0.00 | 0.00 | 79 | 1011.3 |
| 20260506060110 | 15 | 294 | 12.9 | 35.4 | 0.00 | 0.00 | 0.00 | 79 | 1011.5 |
| 20260506060104 | 15 | 199 | 12.9 | 40.2 | 0.00 | 0.00 | 0.00 | 79 | 1011.2 |
| 20260506051404 | 15 | 204 | 12.9 | 32.2 | 0.00 | 0.00 | 0.00 | 78 | 1011.3 |
| 20260506051305 | 15 | 203 | 14.5 | 32.2 | 0.00 | 0.00 | 0.00 | 78 | 1011.3 |
| 20260506051205 | 15 | 200 | 14.5 | 32.2 | 0.00 | 0.00 | 0.00 | 78 | 1011.3 |
| 20260506051104 | 15 | 202 | 14.5 | 32.2 | 0.00 | 0.00 | 0.00 | 78 | 1011.4 |
| 20260506051005 | 15 | 202 | 14.5 | 32.2 | 0.00 | 0.00 | 0.00 | 78 | 1011.2 |
| 20260506050904 | 15 | 203 | 14.5 | 33.8 | 0.00 | 0.00 | 0.00 | 78 | 1011.2 |
| 20260506050804 | 15 | 204 | 14.5 | 33.8 | 0.00 | 0.00 | 0.00 | 78 | 1011.3 |
| 20260506050705 | 15 | 205 | 14.5 | 33.8 | 0.00 | 0.00 | 0.00 | 78 | 1011.2 |
| 20260506050604 | 15 | 205 | 14.5 | 37.0 | 0.00 | 0.00 | 0.00 | 78 | 1011.3 |
| 20260506050505 | 15 | 206 | 14.5 | 37.0 | 0.00 | 0.00 | 0.00 | 78 | 1011.2 |
| 20260506050405 | 15 | 207 | 14.5 | 37.0 | 0.00 | 0.00 | 0.00 | 78 | 1011.2 |
| 20260506050304 | 15 | 207 | 16.1 | 37.0 | 0.00 | 0.00 | 0.00 | 78 | 1011.2 |
| 20260506050205 | 15 | 206 | 16.1 | 37.0 | 0.00 | 0.00 | 0.00 | 78 | 1011.3 |
| 20260506050119 | 15 | 155 | 12.9 | 37.0 | 0.00 | 0.00 | 0.00 | 78 | 1011.4 |
| 20260506050104 | 15 | 204 | 16.1 | 41.8 | 0.00 | 0.00 | 0.00 | 78 | 1011.3 |
| 20260506045104 | 15 | 201 | 14.5 | 46.7 | 0.00 | 0.00 | 0.00 | 78 | 1011.3 |
| 20260506045004 | 15 | 201 | 16.1 | 46.7 | 0.00 | 0.00 | 0.00 | 78 | 1011.3 |
| 20260506044905 | 15 | 200 | 14.5 | 46.7 | 0.00 | 0.00 | 0.00 | 78 | 1011.3 |
| 20260506044804 | 15 | 199 | 14.5 | 46.7 | 0.00 | 0.00 | 0.00 | 78 | 1011.2 |
| 20260506044705 | 15 | 200 | 14.5 | 46.7 | 0.00 | 0.00 | 0.00 | 77 | 1011.2 |
| 20260506044617 | 15 | 196 | 16.1 | 46.7 | 0.00 | 0.00 | 0.00 | 77 | 1011.5 |
| 20260506044605 | 15 | 199 | 14.5 | 46.7 | 0.00 | 0.00 | 0.00 | 77 | 1011.3 |
| 20260506044504 | 15 | 200 | 14.5 | 46.7 | 0.00 | 0.00 | 0.00 | 77 | 1011.2 |
| 20260506044405 | 15 | 201 | 14.5 | 46.7 | 0.00 | 0.00 | 0.00 | 77 | 1011.3 |
| 20260506044305 | 15 | 200 | 14.5 | 46.7 | 0.00 | 0.00 | 0.00 | 77 | 1011.3 |
| 20260506044204 | 15 | 200 | 14.5 | 46.7 | 0.00 | 0.00 | 0.00 | 77 | 1011.3 |
| 20260506044105 | 15 | 200 | 14.5 | 37.0 | 0.00 | 0.00 | 0.00 | 77 | 1011.3 |
| 20260506044004 | 15 | 200 | 14.5 | 37.0 | 0.00 | 0.00 | 0.00 | 77 | 1011.4 |
| 20260506043904 | 15 | 198 | 14.5 | 37.0 | 0.00 | 0.00 | 0.00 | 77 | 1011.3 |
| 20260506043805 | 15 | 200 | 14.5 | 37.0 | 0.00 | 0.00 | 0.00 | 77 | 1011.3 |
| 20260506043705 | 15 | 200 | 16.1 | 37.0 | 0.00 | 0.00 | 0.00 | 77 | 1011.3 |
| 20260506043604 | 15 | 205 | 16.1 | 45.1 | 0.00 | 0.00 | 0.00 | 77 | 1011.3 |
| 20260506043505 | 15 | 203 | 14.5 | 45.1 | 0.00 | 0.00 | 0.00 | 77 | 1011.2 |
| 20260506043405 | 15 | 204 | 16.1 | 45.1 | 0.00 | 0.00 | 0.00 | 77 | 1011.3 |
| 20260506043304 | 15 | 207 | 16.1 | 45.1 | 0.00 | 0.00 | 0.00 | 78 | 1011.2 |
| 20260506043205 | 15 | 205 | 17.7 | 45.1 | 0.00 | 0.00 | 0.00 | 78 | 1011.2 |
| 20260506043109 | 15 | 168 | 11.3 | 45.1 | 0.00 | 0.00 | 0.00 | 78 | 1011.5 |
| 20260506043105 | 15 | 205 | 17.7 | 45.1 | 0.00 | 0.00 | 0.00 | 78 | 1011.2 |
| 20260506043004 | 15 | 206 | 19.3 | 45.1 | 0.00 | 0.00 | 0.00 | 78 | 1011.3 |
| 20260506042905 | 15 | 206 | 19.3 | 45.1 | 0.00 | 0.00 | 0.00 | 78 | 1011.3 |
| 20260506042804 | 15 | 206 | 19.3 | 45.1 | 0.00 | 0.00 | 0.00 | 78 | 1011.3 |
| 20260506042704 | 15 | 207 | 19.3 | 45.1 | 0.00 | 0.00 | 0.00 | 78 | 1011.4 |
| 20260506042605 | 15 | 203 | 17.7 | 53.1 | 0.00 | 0.00 | 0.00 | 78 | 1011.2 |
| 20260506042504 | 15 | 204 | 19.3 | 53.1 | 0.00 | 0.00 | 0.00 | 78 | 1011.3 |
| 20260506042404 | 15 | 202 | 17.7 | 53.1 | 0.00 | 0.00 | 0.00 | 78 | 1011.3 |
| 20260506042305 | 15 | 200 | 17.7 | 53.1 | 0.00 | 0.00 | 0.00 | 78 | 1011.3 |
| 20260506042204 | 15 | 203 | 17.7 | 53.1 | 0.00 | 0.00 | 0.00 | 78 | 1011.3 |
| 20260506042105 | 15 | 203 | 14.5 | 53.1 | 0.00 | 0.00 | 0.00 | 78 | 1011.2 |
| 20260506042004 | 15 | 203 | 14.5 | 53.1 | 0.00 | 0.00 | 0.00 | 78 | 1011.1 |
| 20260506041904 | 15 | 205 | 14.5 | 53.1 | 0.00 | 0.00 | 0.00 | 78 | 1011.1 |
| 20260506041805 | 15 | 204 | 14.5 | 53.1 | 0.00 | 0.00 | 0.00 | 78 | 1011.3 |
| 20260506041704 | 15 | 202 | 12.9 | 53.1 | 0.00 | 0.00 | 0.00 | 78 | 1011.2 |
| 20260506041616 | 15 | 168 | 12.9 | 45.1 | 0.00 | 0.00 | 0.00 | 78 | 1011.5 |
| 20260506041604 | 15 | 204 | 12.9 | 45.1 | 0.00 | 0.00 | 0.00 | 78 | 1011.3 |
| 20260506041505 | 15 | 204 | 12.9 | 45.1 | 0.00 | 0.00 | 0.00 | 78 | 1011.3 |
| 20260506041404 | 15 | 208 | 12.9 | 45.1 | 0.00 | 0.00 | 0.00 | 78 | 1011.3 |
| 20260506041304 | 15 | 209 | 11.3 | 45.1 | 0.00 | 0.00 | 0.00 | 78 | 1011.3 |
| 20260506041204 | 15 | 207 | 11.3 | 30.6 | 0.00 | 0.00 | 0.00 | 77 | 1011.2 |
| 20260506041104 | 15 | 206 | 12.9 | 30.6 | 0.00 | 0.00 | 0.00 | 78 | 1011.2 |
| 20260506041005 | 15 | 206 | 12.9 | 30.6 | 0.00 | 0.00 | 0.00 | 77 | 1011.2 |
| 20260506040904 | 15 | 200 | 12.9 | 48.3 | 0.00 | 0.00 | 0.00 | 77 | 1011.2 |
| 20260506040804 | 15 | 202 | 12.9 | 48.3 | 0.00 | 0.00 | 0.00 | 77 | 1011.2 |
| 20260506040705 | 15 | 202 | 12.9 | 48.3 | 0.00 | 0.00 | 0.00 | 77 | 1011.2 |
| 20260506040604 | 15 | 204 | 14.5 | 48.3 | 0.00 | 0.00 | 0.00 | 77 | 1011.2 |
| 20260506040505 | 15 | 204 | 12.9 | 48.3 | 0.00 | 0.00 | 0.00 | 77 | 1011.2 |
| 20260506040405 | 15 | 202 | 14.5 | 48.3 | 0.00 | 0.00 | 0.00 | 77 | 1011.2 |
| 20260506040107 | 15 | 198 | 16.1 | 48.3 | 0.00 | 0.00 | 0.00 | 77 | 1011.4 |
| 20260506035804 | 15 | 204 | 14.5 | 37.0 | 0.00 | 0.00 | 0.00 | 77 | 1011.2 |
| 20260506035704 | 15 | 205 | 14.5 | 37.0 | 0.00 | 0.00 | 0.00 | 77 | 1011.1 |
| 20260506035605 | 15 | 203 | 14.5 | 30.6 | 0.00 | 0.00 | 0.00 | 77 | 1011.2 |
| 20260506035504 | 15 | 202 | 16.1 | 30.6 | 0.00 | 0.00 | 0.00 | 77 | 1011.3 |
| 20260506035404 | 15 | 204 | 16.1 | 48.3 | 0.00 | 0.00 | 0.00 | 77 | 1011.1 |
| 20260506035306 | 15 | 206 | 16.1 | 48.3 | 0.00 | 0.00 | 0.00 | 77 | 1011.2 |
| 20260506035204 | 15 | 205 | 16.1 | 48.3 | 0.00 | 0.00 | 0.00 | 77 | 1011.2 |
| 20260506035104 | 15 | 206 | 16.1 | 48.3 | 0.00 | 0.00 | 0.00 | 77 | 1011.2 |
| 20260506035004 | 15 | 206 | 16.1 | 48.3 | 0.00 | 0.00 | 0.00 | 77 | 1011.3 |
| 20260506034904 | 15 | 205 | 14.5 | 48.3 | 0.00 | 0.00 | 0.00 | 77 | 1011.2 |
| 20260506034804 | 15 | 207 | 16.1 | 48.3 | 0.00 | 0.00 | 0.00 | 77 | 1011.3 |
| 20260506034704 | 15 | 208 | 14.5 | 48.3 | 0.00 | 0.00 | 0.00 | 77 | 1011.2 |
| 20260506034618 | 15 | 240 | 14.5 | 48.3 | 0.00 | 0.00 | 0.00 | 77 | 1011.4 |
| 20260506034604 | 15 | 209 | 16.1 | 48.3 | 0.00 | 0.00 | 0.00 | 77 | 1011.2 |
| 20260506034504 | 15 | 209 | 16.1 | 48.3 | 0.00 | 0.00 | 0.00 | 76 | 1011.2 |
| 20260506034405 | 15 | 207 | 14.5 | 43.5 | 0.00 | 0.00 | 0.00 | 76 | 1011.2 |
| 20260506034304 | 15 | 207 | 16.1 | 43.5 | 0.00 | 0.00 | 0.00 | 76 | 1011.2 |
| 20260506034205 | 15 | 207 | 16.1 | 43.5 | 0.00 | 0.00 | 0.00 | 76 | 1011.2 |
| 20260506034104 | 15 | 207 | 16.1 | 43.5 | 0.00 | 0.00 | 0.00 | 76 | 1011.2 |
| 20260506034005 | 15 | 208 | 14.5 | 43.5 | 0.00 | 0.00 | 0.00 | 76 | 1011.4 |
| 20260506033905 | 15 | 208 | 16.1 | 43.5 | 0.00 | 0.00 | 0.00 | 76 | 1011.4 |
| 20260506033804 | 15 | 205 | 16.1 | 43.5 | 0.00 | 0.00 | 0.00 | 76 | 1011.3 |
| 20260506033705 | 15 | 205 | 14.5 | 40.2 | 0.00 | 0.00 | 0.00 | 76 | 1011.3 |
| 20260506033107 | 15 | 216 | 11.3 | 30.6 | 0.00 | 0.00 | 0.00 | 76 | 1011.4 |
| 20260506033104 | 15 | 203 | 14.5 | 37.0 | 0.00 | 0.00 | 0.00 | 76 | 1011.2 |
| 20260506033005 | 15 | 203 | 16.1 | 37.0 | 0.00 | 0.00 | 0.00 | 76 | 1011.4 |
| 20260506032904 | 15 | 201 | 14.5 | 37.0 | 0.00 | 0.00 | 0.00 | 76 | 1011.2 |
| 20260506032804 | 15 | 204 | 14.5 | 37.0 | 0.00 | 0.00 | 0.00 | 76 | 1011.3 |
| 20260506032705 | 15 | 206 | 16.1 | 37.0 | 0.00 | 0.00 | 0.00 | 76 | 1011.3 |
| 20260506032604 | 15 | 207 | 16.1 | 37.0 | 0.00 | 0.00 | 0.00 | 76 | 1011.3 |
| 20260506032504 | 15 | 208 | 14.5 | 37.0 | 0.00 | 0.00 | 0.00 | 76 | 1011.3 |
| 20260506032405 | 15 | 208 | 16.1 | 37.0 | 0.00 | 0.00 | 0.00 | 76 | 1011.3 |
| 20260506032306 | 15 | 208 | 16.1 | 37.0 | 0.00 | 0.00 | 0.00 | 76 | 1011.4 |
| 20260506032204 | 15 | 209 | 14.5 | 37.0 | 0.00 | 0.00 | 0.00 | 76 | 1011.4 |
| 20260506032105 | 15 | 209 | 14.5 | 30.6 | 0.00 | 0.00 | 0.00 | 76 | 1011.3 |
| 20260506032004 | 15 | 208 | 14.5 | 30.6 | 0.00 | 0.00 | 0.00 | 76 | 1011.2 |
| 20260506031904 | 15 | 209 | 14.5 | 40.2 | 0.00 | 0.00 | 0.00 | 76 | 1011.3 |
| 20260506031805 | 15 | 209 | 14.5 | 40.2 | 0.00 | 0.00 | 0.00 | 76 | 1011.4 |
| 20260506031704 | 15 | 207 | 14.5 | 40.2 | 0.00 | 0.00 | 0.00 | 76 | 1011.3 |
| 20260506031616 | 15 | 196 | 14.5 | 40.2 | 0.00 | 0.00 | 0.00 | 76 | 1011.5 |
| 20260506031605 | 15 | 207 | 14.5 | 40.2 | 0.00 | 0.00 | 0.00 | 76 | 1011.2 |
| 20260506031504 | 15 | 207 | 12.9 | 40.2 | 0.00 | 0.00 | 0.00 | 76 | 1011.3 |
| 20260506031404 | 15 | 206 | 14.5 | 40.2 | 0.00 | 0.00 | 0.00 | 76 | 1011.3 |
| 20260506031305 | 15 | 205 | 14.5 | 40.2 | 0.00 | 0.00 | 0.00 | 76 | 1011.4 |
| 20260506031204 | 15 | 206 | 12.9 | 40.2 | 0.00 | 0.00 | 0.00 | 76 | 1011.2 |
| 20260506031104 | 15 | 204 | 12.9 | 40.2 | 0.00 | 0.00 | 0.00 | 76 | 1011.2 |
| 20260506031005 | 15 | 203 | 12.9 | 40.2 | 0.00 | 0.00 | 0.00 | 76 | 1011.2 |
| 20260506030904 | 15 | 207 | 12.9 | 40.2 | 0.00 | 0.00 | 0.00 | 76 | 1011.3 |
| 20260506030805 | 15 | 207 | 14.5 | 29.0 | 0.00 | 0.00 | 0.00 | 75 | 1011.3 |
| 20260506030705 | 15 | 208 | 14.5 | 33.8 | 0.00 | 0.00 | 0.00 | 75 | 1011.3 |
| 20260506030604 | 15 | 207 | 14.5 | 33.8 | 0.00 | 0.00 | 0.00 | 75 | 1011.2 |
| 20260506030505 | 15 | 206 | 14.5 | 33.8 | 0.00 | 0.00 | 0.00 | 75 | 1011.3 |
| 20260506030404 | 15 | 206 | 14.5 | 33.8 | 0.00 | 0.00 | 0.00 | 75 | 1011.2 |
| 20260506030304 | 15 | 206 | 14.5 | 33.8 | 0.00 | 0.00 | 0.00 | 75 | 1011.4 |
| 20260506030205 | 15 | 206 | 14.5 | 33.8 | 0.00 | 0.00 | 0.00 | 75 | 1011.2 |
| 20260506030106 | 15 | 181 | 12.9 | 35.4 | 0.00 | 0.00 | 0.00 | 75 | 1011.4 |
| 20260506030104 | 15 | 209 | 14.5 | 33.8 | 0.00 | 0.00 | 0.00 | 75 | 1011.4 |
| 20260506030005 | 15 | 209 | 14.5 | 33.8 | 0.00 | 0.00 | 0.00 | 75 | 1011.3 |
| 20260506025905 | 15 | 207 | 14.5 | 33.8 | 0.00 | 0.00 | 0.00 | 75 | 1011.3 |
| 20260506025804 | 15 | 204 | 14.5 | 33.8 | 0.00 | 0.00 | 0.00 | 75 | 1011.2 |
| 20260506025705 | 15 | 202 | 12.9 | 30.6 | 0.00 | 0.00 | 0.00 | 75 | 1011.3 |
| 20260506025604 | 15 | 204 | 14.5 | 30.6 | 0.00 | 0.00 | 0.00 | 75 | 1011.4 |
| 20260506025504 | 15 | 203 | 12.9 | 30.6 | 0.00 | 0.00 | 0.00 | 75 | 1011.4 |
| 20260506025405 | 15 | 203 | 14.5 | 30.6 | 0.00 | 0.00 | 0.00 | 75 | 1011.4 |
| 20260506024614 | 15 | 212 | 12.9 | 33.8 | 0.00 | 0.00 | 0.00 | 74 | 1011.7 |
| 20260506024204 | 15 | 200 | 14.5 | 37.0 | 0.00 | 0.00 | 0.00 | 74 | 1011.4 |
| 20260506024105 | 15 | 199 | 14.5 | 37.0 | 0.00 | 0.00 | 0.00 | 74 | 1011.3 |
| 20260506024005 | 15 | 201 | 14.5 | 37.0 | 0.00 | 0.00 | 0.00 | 74 | 1011.4 |
| 20260506023904 | 15 | 203 | 16.1 | 37.0 | 0.00 | 0.00 | 0.00 | 74 | 1011.3 |
| 20260506023805 | 15 | 202 | 14.5 | 40.2 | 0.00 | 0.00 | 0.00 | 74 | 1011.4 |
| 20260506023113 | 15 | 218 | 17.7 | 35.4 | 0.00 | 0.00 | 0.00 | 74 | 1011.5 |
| 20260506023104 | 16 | 203 | 16.1 | 40.2 | 0.00 | 0.00 | 0.00 | 74 | 1011.4 |
| 20260506023004 | 16 | 204 | 14.5 | 40.2 | 0.00 | 0.00 | 0.00 | 74 | 1011.3 |
| 20260506022905 | 16 | 203 | 14.5 | 40.2 | 0.00 | 0.00 | 0.00 | 74 | 1011.3 |
| 20260506022804 | 16 | 205 | 14.5 | 38.6 | 0.00 | 0.00 | 0.00 | 74 | 1011.3 |
| 20260506022704 | 16 | 204 | 14.5 | 38.6 | 0.00 | 0.00 | 0.00 | 74 | 1011.4 |
| 20260506022605 | 16 | 205 | 14.5 | 38.6 | 0.00 | 0.00 | 0.00 | 74 | 1011.4 |
| 20260506021612 | 15 | 197 | 16.1 | 37.0 | 0.00 | 0.00 | 0.00 | 73 | 1011.6 |
| 20260506021504 | 16 | 198 | 14.5 | 40.2 | 0.00 | 0.00 | 0.00 | 73 | 1011.3 |
| 20260506021404 | 16 | 195 | 16.1 | 40.2 | 0.00 | 0.00 | 0.00 | 73 | 1011.3 |
| 20260506021305 | 16 | 197 | 14.5 | 40.2 | 0.00 | 0.00 | 0.00 | 73 | 1011.4 |
| 20260506021204 | 16 | 197 | 16.1 | 40.2 | 0.00 | 0.00 | 0.00 | 73 | 1011.3 |
| 20260506021104 | 16 | 196 | 14.5 | 40.2 | 0.00 | 0.00 | 0.00 | 73 | 1011.3 |
| 20260506021005 | 16 | 197 | 14.5 | 40.2 | 0.00 | 0.00 | 0.00 | 73 | 1011.2 |
| 20260506020904 | 16 | 197 | 14.5 | 40.2 | 0.00 | 0.00 | 0.00 | 73 | 1011.3 |
| 20260506020804 | 16 | 198 | 14.5 | 37.0 | 0.00 | 0.00 | 0.00 | 73 | 1011.3 |
| 20260506020705 | 16 | 200 | 14.5 | 37.0 | 0.00 | 0.00 | 0.00 | 73 | 1011.3 |
| 20260506020604 | 16 | 200 | 14.5 | 37.0 | 0.00 | 0.00 | 0.00 | 72 | 1011.4 |
| 20260506020505 | 16 | 201 | 14.5 | 35.4 | 0.00 | 0.00 | 0.00 | 72 | 1011.4 |
| 20260506020405 | 16 | 206 | 12.9 | 35.4 | 0.00 | 0.00 | 0.00 | 73 | 1011.4 |
| 20260506020304 | 16 | 203 | 14.5 | 27.4 | 0.00 | 0.00 | 0.00 | 73 | 1011.3 |
| 20260506020205 | 16 | 205 | 14.5 | 27.4 | 0.00 | 0.00 | 0.00 | 73 | 1011.2 |
| 20260506020104 | 16 | 207 | 14.5 | 27.4 | 0.00 | 0.00 | 0.00 | 72 | 1011.3 |
| 20260506020004 | 16 | 209 | 14.5 | 33.8 | 0.00 | 0.00 | 0.00 | 72 | 1011.3 |
| 20260506015905 | 16 | 210 | 16.1 | 33.8 | 0.00 | 0.00 | 0.00 | 72 | 1011.4 |
| 20260506015804 | 16 | 213 | 16.1 | 45.1 | 0.00 | 0.00 | 0.00 | 72 | 1011.3 |
| 20260506015704 | 16 | 211 | 16.1 | 45.1 | 0.00 | 0.00 | 0.00 | 72 | 1011.2 |
| 20260506015605 | 16 | 211 | 16.1 | 45.1 | 0.00 | 0.00 | 0.00 | 72 | 1011.2 |
| 20260506015504 | 16 | 214 | 16.1 | 45.1 | 0.00 | 0.00 | 0.00 | 72 | 1011.3 |
| 20260506015404 | 16 | 211 | 17.7 | 45.1 | 0.00 | 0.00 | 0.00 | 72 | 1011.3 |
| 20260506015306 | 16 | 213 | 16.1 | 45.1 | 0.00 | 0.00 | 0.00 | 72 | 1011.3 |
| 20260506015204 | 16 | 213 | 16.1 | 45.1 | 0.00 | 0.00 | 0.00 | 72 | 1011.3 |
| 20260506015104 | 16 | 214 | 16.1 | 45.1 | 0.00 | 0.00 | 0.00 | 72 | 1011.3 |
| 20260506015004 | 16 | 212 | 16.1 | 45.1 | 0.00 | 0.00 | 0.00 | 72 | 1011.2 |
| 20260506014904 | 16 | 213 | 16.1 | 45.1 | 0.00 | 0.00 | 0.00 | 72 | 1011.3 |
| 20260506014805 | 16 | 215 | 16.1 | 43.5 | 0.00 | 0.00 | 0.00 | 72 | 1011.2 |
| 20260506014704 | 16 | 219 | 16.1 | 43.5 | 0.00 | 0.00 | 0.00 | 71 | 1011.3 |
| 20260506014610 | 16 | 239 | 16.1 | 41.8 | 0.00 | 0.00 | 0.00 | 72 | 1011.5 |
| 20260506014605 | 16 | 219 | 14.5 | 43.5 | 0.00 | 0.00 | 0.00 | 71 | 1011.4 |
| 20260506014504 | 16 | 219 | 14.5 | 43.5 | 0.00 | 0.00 | 0.00 | 71 | 1011.2 |
| 20260506014404 | 16 | 220 | 14.5 | 43.5 | 0.00 | 0.00 | 0.00 | 71 | 1011.2 |
| 20260506014305 | 16 | 219 | 16.1 | 43.5 | 0.00 | 0.00 | 0.00 | 71 | 1011.3 |
| 20260506014204 | 16 | 219 | 16.1 | 43.5 | 0.00 | 0.00 | 0.00 | 71 | 1011.2 |
| 20260506014105 | 16 | 219 | 16.1 | 43.5 | 0.00 | 0.00 | 0.00 | 71 | 1011.1 |
| 20260506014004 | 16 | 219 | 16.1 | 43.5 | 0.00 | 0.00 | 0.00 | 71 | 1011.2 |
| 20260506013904 | 16 | 218 | 14.5 | 43.5 | 0.00 | 0.00 | 0.00 | 71 | 1011.1 |
| 20260506013805 | 16 | 217 | 16.1 | 37.0 | 0.00 | 0.00 | 0.00 | 71 | 1011.1 |
| 20260506013704 | 16 | 214 | 14.5 | 37.0 | 0.00 | 0.00 | 0.00 | 71 | 1011.2 |
| 20260506013604 | 16 | 214 | 14.5 | 35.4 | 0.00 | 0.00 | 0.00 | 71 | 1011.0 |
| 20260506013505 | 16 | 210 | 14.5 | 35.4 | 0.00 | 0.00 | 0.00 | 71 | 1011.1 |
| 20260506013404 | 16 | 211 | 14.5 | 35.4 | 0.00 | 0.00 | 0.00 | 71 | 1010.9 |
| 20260506013304 | 16 | 211 | 12.9 | 35.4 | 0.00 | 0.00 | 0.00 | 71 | 1011.1 |
| 20260506013117 | 16 | 221 | 11.3 | 35.4 | 0.00 | 0.00 | 0.00 | 71 | 1011.2 |
| 20260506012704 | 16 | 205 | 16.1 | 46.7 | 0.00 | 0.00 | 0.00 | 71 | 1011.0 |
| 20260506012604 | 16 | 206 | 17.7 | 46.7 | 0.00 | 0.00 | 0.00 | 71 | 1011.0 |
| 20260506012505 | 16 | 208 | 17.7 | 48.3 | 0.00 | 0.00 | 0.00 | 71 | 1010.8 |
| 20260506012404 | 16 | 207 | 17.7 | 48.3 | 0.00 | 0.00 | 0.00 | 71 | 1010.9 |
| 20260506012307 | 16 | 207 | 16.1 | 48.3 | 0.00 | 0.00 | 0.00 | 71 | 1010.9 |
| 20260506012205 | 16 | 208 | 16.1 | 48.3 | 0.00 | 0.00 | 0.00 | 71 | 1010.9 |
| 20260506012104 | 16 | 205 | 17.7 | 48.3 | 0.00 | 0.00 | 0.00 | 71 | 1010.9 |
| 20260506012004 | 16 | 205 | 17.7 | 48.3 | 0.00 | 0.00 | 0.00 | 71 | 1010.8 |
| 20260506011904 | 16 | 205 | 17.7 | 48.3 | 0.00 | 0.00 | 0.00 | 71 | 1010.7 |
| 20260506011804 | 16 | 205 | 17.7 | 48.3 | 0.00 | 0.00 | 0.00 | 70 | 1010.9 |
| 20260506011705 | 16 | 207 | 16.1 | 48.3 | 0.00 | 0.00 | 0.00 | 70 | 1010.8 |
| 20260506011608 | 16 | 185 | 20.9 | 46.7 | 0.00 | 0.00 | 0.00 | 70 | 1011.0 |
| 20260506011604 | 16 | 206 | 16.1 | 48.3 | 0.00 | 0.00 | 0.00 | 70 | 1010.8 |
| 20260506011504 | 16 | 204 | 16.1 | 43.5 | 0.00 | 0.00 | 0.00 | 70 | 1010.7 |
| 20260506011405 | 16 | 204 | 16.1 | 43.5 | 0.00 | 0.00 | 0.00 | 70 | 1010.8 |
| 20260506011304 | 16 | 204 | 17.7 | 43.5 | 0.00 | 0.00 | 0.00 | 70 | 1010.8 |
| 20260506011204 | 16 | 204 | 17.7 | 43.5 | 0.00 | 0.00 | 0.00 | 70 | 1010.8 |
| 20260506011105 | 16 | 204 | 16.1 | 43.5 | 0.00 | 0.00 | 0.00 | 70 | 1010.7 |
| 20260506011004 | 16 | 205 | 16.1 | 35.4 | 0.00 | 0.00 | 0.00 | 70 | 1010.7 |
| 20260506010904 | 16 | 206 | 16.1 | 35.4 | 0.00 | 0.00 | 0.00 | 70 | 1010.7 |
| 20260506010805 | 16 | 206 | 14.5 | 35.4 | 0.00 | 0.00 | 0.00 | 70 | 1010.6 |
| 20260506010704 | 16 | 205 | 16.1 | 35.4 | 0.00 | 0.00 | 0.00 | 70 | 1010.7 |
| 20260506010604 | 16 | 206 | 16.1 | 35.4 | 0.00 | 0.00 | 0.00 | 70 | 1010.7 |
| 20260506010505 | 16 | 207 | 16.1 | 35.4 | 0.00 | 0.00 | 0.00 | 70 | 1010.6 |
| 20260506010115 | 16 | 240 | 14.5 | 37.0 | 0.00 | 0.00 | 0.00 | 71 | 1010.9 |
| 20260506005904 | 16 | 209 | 14.5 | 35.4 | 0.00 | 0.00 | 0.00 | 71 | 1010.5 |
| 20260506005804 | 16 | 210 | 14.5 | 35.4 | 0.00 | 0.00 | 0.00 | 71 | 1010.6 |
| 20260506005705 | 16 | 209 | 14.5 | 35.4 | 0.00 | 0.00 | 0.00 | 71 | 1010.5 |
| 20260506005604 | 16 | 208 | 12.9 | 35.4 | 0.00 | 0.00 | 0.00 | 71 | 1010.5 |
| 20260506005504 | 16 | 206 | 14.5 | 35.4 | 0.00 | 0.00 | 0.00 | 71 | 1010.4 |
| 20260506005405 | 16 | 207 | 14.5 | 35.4 | 0.00 | 0.00 | 0.00 | 71 | 1010.4 |
| 20260506005305 | 16 | 207 | 14.5 | 35.4 | 0.00 | 0.00 | 0.00 | 71 | 1010.5 |
| 20260506005204 | 16 | 207 | 14.5 | 35.4 | 0.00 | 0.00 | 0.00 | 71 | 1010.4 |
| 20260506005105 | 16 | 207 | 14.5 | 35.4 | 0.00 | 0.00 | 0.00 | 71 | 1010.5 |
| 20260506005004 | 16 | 208 | 14.5 | 35.4 | 0.00 | 0.00 | 0.00 | 71 | 1010.5 |
| 20260506004904 | 16 | 209 | 16.1 | 41.8 | 0.00 | 0.00 | 0.00 | 71 | 1010.4 |
| 20260506004805 | 16 | 208 | 16.1 | 41.8 | 0.00 | 0.00 | 0.00 | 71 | 1010.4 |
| 20260506004704 | 16 | 208 | 16.1 | 41.8 | 0.00 | 0.00 | 0.00 | 71 | 1010.5 |
| 20260506004604 | 16 | 163 | 12.9 | 41.8 | 0.00 | 0.00 | 0.00 | 71 | 1010.7 |
| 20260506004505 | 16 | 210 | 17.7 | 41.8 | 0.00 | 0.00 | 0.00 | 71 | 1010.4 |
| 20260506004404 | 16 | 211 | 16.1 | 41.8 | 0.00 | 0.00 | 0.00 | 71 | 1010.4 |
| 20260506004304 | 16 | 209 | 16.1 | 41.8 | 0.00 | 0.00 | 0.00 | 71 | 1010.4 |
| 20260506004205 | 16 | 212 | 16.1 | 41.8 | 0.00 | 0.00 | 0.00 | 71 | 1010.3 |
| 20260506004105 | 16 | 210 | 16.1 | 41.8 | 0.00 | 0.00 | 0.00 | 71 | 1010.2 |
| 20260506004004 | 16 | 211 | 16.1 | 41.8 | 0.00 | 0.00 | 0.00 | 71 | 1010.1 |
| 20260506003904 | 16 | 209 | 16.1 | 37.0 | 0.00 | 0.00 | 0.00 | 71 | 1010.3 |
| 20260506003804 | 16 | 210 | 16.1 | 46.7 | 0.00 | 0.00 | 0.00 | 71 | 1010.4 |
| 20260506003705 | 16 | 212 | 16.1 | 46.7 | 0.00 | 0.00 | 0.00 | 71 | 1010.2 |
| 20260506003604 | 16 | 212 | 16.1 | 46.7 | 0.00 | 0.00 | 0.00 | 71 | 1010.2 |
| 20260506003504 | 16 | 211 | 16.1 | 53.1 | 0.00 | 0.00 | 0.00 | 71 | 1010.3 |
| 20260506003404 | 16 | 211 | 16.1 | 53.1 | 0.00 | 0.00 | 0.00 | 71 | 1010.2 |
| 20260506003304 | 16 | 212 | 17.7 | 53.1 | 0.00 | 0.00 | 0.00 | 71 | 1010.2 |
| 20260506003205 | 16 | 210 | 17.7 | 53.1 | 0.00 | 0.00 | 0.00 | 71 | 1010.2 |
| 20260506003110 | 16 | 275 | 16.1 | 49.9 | 0.00 | 0.00 | 0.00 | 71 | 1010.4 |
| 20260506003104 | 16 | 212 | 17.7 | 53.1 | 0.00 | 0.00 | 0.00 | 71 | 1010.2 |
| 20260506003004 | 16 | 212 | 17.7 | 53.1 | 0.00 | 0.00 | 0.00 | 71 | 1010.1 |
| 20260506002905 | 16 | 214 | 17.7 | 53.1 | 0.00 | 0.00 | 0.00 | 71 | 1010.1 |
| 20260506002804 | 16 | 213 | 17.7 | 53.1 | 0.00 | 0.00 | 0.00 | 71 | 1010.2 |
| 20260506002704 | 16 | 212 | 17.7 | 53.1 | 0.00 | 0.00 | 0.00 | 71 | 1010.2 |
| 20260506002605 | 16 | 212 | 17.7 | 53.1 | 0.00 | 0.00 | 0.00 | 71 | 1010.1 |
| 20260506002504 | 16 | 212 | 17.7 | 49.9 | 0.00 | 0.00 | 0.00 | 70 | 1010.2 |
| 20260506002404 | 16 | 212 | 17.7 | 49.9 | 0.00 | 0.00 | 0.00 | 70 | 1010.1 |
| 20260506002306 | 16 | 211 | 17.7 | 49.9 | 0.00 | 0.00 | 0.00 | 71 | 1010.1 |
| 20260506002204 | 16 | 209 | 17.7 | 45.1 | 0.00 | 0.00 | 0.00 | 71 | 1010.1 |
| 20260506002105 | 16 | 210 | 17.7 | 45.1 | 0.00 | 0.00 | 0.00 | 71 | 1010.0 |
| 20260506002004 | 16 | 210 | 17.7 | 45.1 | 0.00 | 0.00 | 0.00 | 71 | 1010.0 |
| 20260506001904 | 16 | 210 | 17.7 | 45.1 | 0.00 | 0.00 | 0.00 | 71 | 1010.1 |
| 20260506001805 | 16 | 210 | 17.7 | 45.1 | 0.00 | 0.00 | 0.00 | 71 | 1009.9 |
| 20260506001704 | 16 | 212 | 19.3 | 45.1 | 0.00 | 0.00 | 0.00 | 71 | 1010.1 |
| 20260506001604 | 16 | 213 | 19.3 | 45.1 | 0.00 | 0.00 | 0.00 | 71 | 1010.0 |
| 20260506001505 | 16 | 215 | 19.3 | 49.9 | 0.00 | 0.00 | 0.00 | 71 | 1010.0 |
| 20260506001404 | 16 | 215 | 19.3 | 49.9 | 0.00 | 0.00 | 0.00 | 71 | 1010.1 |
| 20260506001304 | 16 | 215 | 19.3 | 49.9 | 0.00 | 0.00 | 0.00 | 71 | 1009.9 |
| 20260506001204 | 16 | 217 | 17.7 | 49.9 | 0.00 | 0.00 | 0.00 | 70 | 1010.1 |
| 20260506001104 | 16 | 215 | 17.7 | 49.9 | 0.00 | 0.00 | 0.00 | 71 | 1010.0 |
| 20260506001005 | 16 | 214 | 17.7 | 49.9 | 0.00 | 0.00 | 0.00 | 70 | 1010.2 |
| 20260506000904 | 16 | 213 | 17.7 | 49.9 | 0.00 | 0.00 | 0.00 | 70 | 1010.0 |
| 20260506000804 | 16 | 213 | 16.1 | 49.9 | 0.00 | 0.00 | 0.00 | 70 | 1009.9 |
| 20260506000704 | 16 | 210 | 16.1 | 49.9 | 0.00 | 0.00 | 0.00 | 70 | 1010.1 |
| 20260506000604 | 16 | 210 | 16.1 | 49.9 | 0.00 | 0.00 | 0.00 | 70 | 1010.0 |
| 20260506000505 | 16 | 206 | 16.1 | 38.6 | 0.00 | 0.00 | 0.00 | 70 | 1010.1 |
| 20260506000405 | 16 | 205 | 16.1 | 38.6 | 0.00 | 0.00 | 0.00 | 70 | 1009.9 |
| 20260506000304 | 16 | 205 | 16.1 | 38.6 | 0.00 | 0.00 | 0.00 | 70 | 1009.9 |
| 20260506000205 | 16 | 206 | 16.1 | 40.2 | 0.00 | 0.00 | 0.00 | 70 | 1009.8 |
| 20260506000108 | 16 | 73 | 14.5 | 43.5 | 0.00 | 0.00 | 0.00 | 70 | 1010.0 |
| 20260506000105 | 16 | 206 | 16.1 | 40.2 | 0.00 | 0.00 | 0.00 | 70 | 1009.7 |
| 20260506000004 | 16 | 207 | 16.1 | 40.2 | 0.00 | 0.00 | 0.00 | 70 | 1009.9 |
| 20260505235904 | 16 | 205 | 16.1 | 40.2 | 0.00 | 0.00 | 0.00 | 70 | 1009.8 |
| 20260505235805 | 16 | 205 | 16.1 | 40.2 | 0.00 | 0.00 | 0.00 | 70 | 1009.8 |
| 20260505235704 | 16 | 209 | 16.1 | 40.2 | 0.00 | 0.00 | 0.00 | 70 | 1009.6 |
| 20260505235604 | 16 | 209 | 16.1 | 40.2 | 0.00 | 0.00 | 0.00 | 70 | 1009.7 |
| 20260505235504 | 16 | 209 | 16.1 | 40.2 | 0.00 | 0.00 | 0.00 | 70 | 1009.8 |
| 20260505235404 | 16 | 211 | 17.7 | 40.2 | 0.00 | 0.00 | 0.00 | 70 | 1009.8 |
| 20260505235305 | 16 | 211 | 16.1 | 40.2 | 0.00 | 0.00 | 0.00 | 70 | 1009.6 |
| 20260505235204 | 16 | 212 | 16.1 | 38.6 | 0.00 | 0.00 | 0.00 | 70 | 1009.7 |
| 20260505235104 | 16 | 212 | 17.7 | 38.6 | 0.00 | 0.00 | 0.00 | 70 | 1009.9 |
| 20260505235004 | 16 | 213 | 17.7 | 38.6 | 0.00 | 0.00 | 0.00 | 70 | 1009.8 |
| 20260505234904 | 16 | 215 | 17.7 | 38.6 | 0.00 | 0.00 | 0.00 | 69 | 1009.8 |
| 20260505234805 | 16 | 214 | 19.3 | 43.5 | 0.00 | 0.00 | 0.00 | 69 | 1009.8 |
| 20260505234704 | 16 | 212 | 17.7 | 43.5 | 0.00 | 0.00 | 0.00 | 69 | 1009.9 |
| 20260505234619 | 16 | 261 | 16.1 | 43.5 | 0.00 | 0.00 | 0.00 | 69 | 1010.1 |
| 20260505234604 | 16 | 212 | 17.7 | 43.5 | 0.00 | 0.00 | 0.00 | 69 | 1009.8 |
| 20260505234505 | 16 | 213 | 17.7 | 43.5 | 0.00 | 0.00 | 0.00 | 69 | 1009.9 |
| 20260505234404 | 16 | 212 | 17.7 | 43.5 | 0.00 | 0.00 | 0.00 | 69 | 1009.9 |
| 20260505234304 | 16 | 211 | 17.7 | 43.5 | 0.00 | 0.00 | 0.00 | 69 | 1009.8 |
| 20260505234205 | 16 | 212 | 17.7 | 43.5 | 0.00 | 0.00 | 0.00 | 69 | 1009.7 |
| 20260505234104 | 16 | 213 | 16.1 | 43.5 | 0.00 | 0.00 | 0.00 | 69 | 1009.9 |
| 20260505234004 | 16 | 210 | 16.1 | 43.5 | 0.00 | 0.00 | 0.00 | 69 | 1009.7 |
| 20260505233904 | 16 | 210 | 16.1 | 43.5 | 0.00 | 0.00 | 0.00 | 69 | 1009.7 |
| 20260505233804 | 17 | 210 | 14.5 | 38.6 | 0.00 | 0.00 | 0.00 | 69 | 1009.6 |
| 20260505233704 | 17 | 208 | 16.1 | 33.8 | 0.00 | 0.00 | 0.00 | 69 | 1009.6 |
| 20260505233604 | 17 | 210 | 14.5 | 51.5 | 0.00 | 0.00 | 0.00 | 69 | 1009.6 |